Time,TemperatureF,DewpointF,PressureIn,WindDirection,WindDirectionDegrees,WindSpeedMPH,WindSpeedGustMPH,Humidity,HourlyPrecipIn,Conditions,Clouds,dailyrainin,SolarRadiationWatts/m^2,SoftwareType,DateUTC
2013-06-28 00:01:00,73.1,68.3,29.62,WNW,300,0.0,0.0,85,0.00,,,0.01,0.00,VWS V14.01,2013-06-28 04:01:00,
2013-06-28 00:06:00,72.9,68.1,29.62,WNW,300,0.0,0.0,85,0.00,,,0.00,0.00,VWS V14.01,2013-06-28 04:06:00,
2013-06-28 00:11:00,72.8,68.0,29.62,WNW,300,0.0,0.0,85,0.00,,,0.00,0.00,VWS V14.01,2013-06-28 04:11:00,
2013-06-28 00:16:00,72.6,68.2,29.63,WNW,300,0.0,0.0,86,0.00,,,0.00,0.00,VWS V14.01,2013-06-28 04:16:00,
2013-06-28 00:21:00,72.4,68.0,29.63,WNW,300,0.0,0.0,86,0.00,,,0.00,0.00,VWS V14.01,2013-06-28 04:21:00,
2013-06-28 00:22:00,72.4,68.0,29.62,WNW,300,0.0,0.0,86,0.00,,,0.00,0.00,VWS V14.01,2013-06-28 04:22:00,
2013-06-28 00:26:00,72.3,67.9,29.63,WNW,300,0.0,0.0,86,0.00,,,0.00,0.00,VWS V14.01,2013-06-28 04:26:00,
2013-06-28 00:27:00,72.3,68.2,29.63,WNW,300,0.0,0.0,87,0.00,,,0.00,0.00,VWS V14.01,2013-06-28 04:27:00,
2013-06-28 00:31:00,72.2,68.1,29.63,WNW,300,0.0,0.0,87,0.00,,,0.00,0.00,VWS V14.01,2013-06-28 04:31:00,
2013-06-28 00:32:00,72.1,68.0,29.63,WNW,299,0.0,0.0,87,0.00,,,0.00,0.00,VWS V14.01,2013-06-28 04:32:00,
2013-06-28 00:36:00,71.9,68.2,29.63,WNW,300,0.0,0.0,88,0.00,,,0.00,0.00,VWS V14.01,2013-06-28 04:36:00,
2013-06-28 00:37:00,71.8,68.1,29.63,WNW,300,0.0,0.0,88,0.00,,,0.00,0.00,VWS V14.01,2013-06-28 04:37:00,
2013-06-28 00:41:00,71.6,67.9,29.62,WNW,300,0.0,0.0,88,0.00,,,0.00,0.00,VWS V14.01,2013-06-28 04:41:00,
2013-06-28 00:42:00,71.5,67.8,29.62,WNW,300,0.0,0.0,88,0.00,,,0.00,0.00,VWS V14.01,2013-06-28 04:42:00,
2013-06-28 00:46:00,71.4,67.7,29.62,WNW,300,0.0,0.0,88,0.00,,,0.00,0.00,VWS V14.01,2013-06-28 04:46:00,
2013-06-28 00:47:00,71.4,67.7,29.62,WNW,300,0.0,0.0,88,0.00,,,0.00,0.00,VWS V14.01,2013-06-28 04:47:00,
2013-06-28 00:51:00,71.2,67.8,29.62,WNW,300,0.0,0.0,89,0.00,,,0.00,0.00,VWS V14.01,2013-06-28 04:51:00,
2013-06-28 00:52:00,71.2,67.8,29.62,WNW,300,0.0,0.0,89,0.00,,,0.00,0.00,VWS V14.01,2013-06-28 04:52:00,
2013-06-28 00:56:00,71.1,67.7,29.62,WNW,300,0.0,0.0,89,0.00,,,0.00,0.00,VWS V14.01,2013-06-28 04:56:00,
2013-06-28 00:57:00,71.0,67.6,29.62,WNW,300,0.0,0.0,89,0.00,,,0.00,0.00,VWS V14.01,2013-06-28 04:57:00,
2013-06-28 01:01:00,70.9,67.5,29.62,WNW,300,0.0,0.0,89,0.00,,,0.00,0.00,VWS V14.01,2013-06-28 05:01:00,
2013-06-28 01:02:00,70.9,67.5,29.62,WNW,300,0.0,0.0,89,0.00,,,0.00,0.00,VWS V14.01,2013-06-28 05:02:00,
2013-06-28 01:06:00,70.8,67.4,29.62,WNW,300,0.0,0.0,89,0.00,,,0.00,0.00,VWS V14.01,2013-06-28 05:06:00,
2013-06-28 01:07:00,70.7,67.3,29.62,WNW,300,0.0,0.0,89,0.00,,,0.00,0.00,VWS V14.01,2013-06-28 05:07:00,
2013-06-28 01:11:00,70.6,67.5,29.62,WNW,300,0.0,0.0,90,0.00,,,0.00,0.00,VWS V14.01,2013-06-28 05:11:00,
2013-06-28 01:12:00,70.6,67.5,29.62,WNW,300,0.0,0.0,90,0.00,,,0.00,0.00,VWS V14.01,2013-06-28 05:12:00,
2013-06-28 01:16:00,70.5,67.4,29.62,WNW,300,0.0,0.0,90,0.00,,,0.00,0.00,VWS V14.01,2013-06-28 05:16:00,
2013-06-28 01:17:00,70.4,67.3,29.62,WNW,300,0.0,0.0,90,0.00,,,0.00,0.00,VWS V14.01,2013-06-28 05:17:00,
2013-06-28 01:21:00,70.3,67.2,29.62,WNW,300,0.0,0.0,90,0.00,,,0.00,0.00,VWS V14.01,2013-06-28 05:21:00,
2013-06-28 01:22:00,70.3,67.2,29.62,WNW,300,0.0,0.0,90,0.00,,,0.00,0.00,VWS V14.01,2013-06-28 05:22:00,
2013-06-28 01:26:00,70.2,67.4,29.62,WNW,300,0.0,0.0,91,0.00,,,0.00,0.00,VWS V14.01,2013-06-28 05:26:00,
2013-06-28 01:27:00,70.2,67.4,29.62,WNW,300,0.0,0.0,91,0.00,,,0.00,0.00,VWS V14.01,2013-06-28 05:27:00,
2013-06-28 01:31:00,70.2,67.4,29.62,WNW,300,0.0,0.0,91,0.00,,,0.00,0.00,VWS V14.01,2013-06-28 05:31:00,
2013-06-28 01:32:00,70.2,67.4,29.62,WNW,300,0.0,0.0,91,0.00,,,0.00,0.00,VWS V14.01,2013-06-28 05:32:00,
2013-06-28 01:33:00,70.2,67.4,29.62,WNW,300,0.0,0.0,91,0.00,,,0.00,0.00,VWS V14.01,2013-06-28 05:33:00,
2013-06-28 01:36:00,70.2,67.4,29.62,WNW,300,0.0,0.0,91,0.00,,,0.00,0.00,VWS V14.01,2013-06-28 05:36:00,
2013-06-28 01:37:00,70.2,67.4,29.62,WNW,300,0.0,0.0,91,0.00,,,0.00,0.00,VWS V14.01,2013-06-28 05:37:00,
2013-06-28 01:38:00,70.2,67.4,29.61,WNW,300,0.0,0.0,91,0.00,,,0.00,0.00,VWS V14.01,2013-06-28 05:38:00,
2013-06-28 01:42:00,70.2,67.4,29.62,WNW,300,0.0,0.0,91,0.00,,,0.00,0.00,VWS V14.01,2013-06-28 05:42:00,
2013-06-28 01:43:00,70.2,67.4,29.62,WNW,300,0.0,0.0,91,0.00,,,0.00,0.00,VWS V14.01,2013-06-28 05:43:00,
2013-06-28 01:47:00,70.2,67.8,29.62,WNW,300,0.0,0.0,92,0.00,,,0.00,0.00,VWS V14.01,2013-06-28 05:47:00,
2013-06-28 01:48:00,70.2,67.8,29.62,WNW,300,0.0,0.0,92,0.00,,,0.00,0.00,VWS V14.01,2013-06-28 05:48:00,
2013-06-28 01:52:00,70.2,67.8,29.62,WNW,300,0.0,1.0,92,0.00,,,0.00,0.00,VWS V14.01,2013-06-28 05:52:00,
2013-06-28 01:53:00,70.3,67.9,29.62,WNW,300,0.0,0.0,92,0.00,,,0.00,0.00,VWS V14.01,2013-06-28 05:53:00,
2013-06-28 01:57:00,70.4,68.3,29.62,WNW,300,0.0,0.0,93,0.00,,,0.00,0.00,VWS V14.01,2013-06-28 05:57:00,
2013-06-28 01:58:00,70.5,68.4,29.62,WNW,300,0.0,0.0,93,0.00,,,0.00,0.00,VWS V14.01,2013-06-28 05:58:00,
2013-06-28 02:02:00,70.7,68.6,29.62,WNW,300,0.0,3.0,93,0.00,,,0.00,0.00,VWS V14.01,2013-06-28 06:02:00,
2013-06-28 02:03:00,70.8,68.7,29.62,WNW,300,0.0,0.0,93,0.00,,,0.00,0.00,VWS V14.01,2013-06-28 06:03:00,
2013-06-28 02:07:00,71.1,69.0,29.62,WNW,300,0.0,3.0,93,0.00,,,0.00,0.00,VWS V14.01,2013-06-28 06:07:00,
2013-06-28 02:08:00,71.2,69.1,29.62,NW,304,1.0,4.0,93,0.00,,,0.00,0.00,VWS V14.01,2013-06-28 06:08:00,
2013-06-28 02:12:00,71.5,69.1,29.62,NW,306,0.0,1.0,92,0.00,,,0.00,0.00,VWS V14.01,2013-06-28 06:12:00,
2013-06-28 02:13:00,71.5,69.1,29.62,NW,306,0.0,0.0,92,0.00,,,0.00,0.00,VWS V14.01,2013-06-28 06:13:00,
2013-06-28 02:17:00,71.7,69.3,29.62,NNW,337,0.0,2.0,92,0.00,,,0.00,0.00,VWS V14.01,2013-06-28 06:17:00,
2013-06-28 02:18:00,71.7,68.9,29.62,NNW,337,0.0,1.0,91,0.00,,,0.00,0.00,VWS V14.01,2013-06-28 06:18:00,
2013-06-28 02:22:00,71.8,69.0,29.61,NNW,337,1.0,1.0,91,0.00,,,0.00,0.00,VWS V14.01,2013-06-28 06:22:00,
2013-06-28 02:23:00,71.9,69.1,29.61,NNW,338,3.0,4.0,91,0.00,,,0.00,0.00,VWS V14.01,2013-06-28 06:23:00,
2013-06-28 02:27:00,71.9,69.1,29.61,NNW,338,2.0,4.0,91,0.00,,,0.00,0.00,VWS V14.01,2013-06-28 06:27:00,
2013-06-28 02:28:00,71.9,69.1,29.61,NNW,338,0.0,2.0,91,0.00,,,0.00,0.00,VWS V14.01,2013-06-28 06:28:00,
2013-06-28 02:32:00,72.0,68.9,29.62,NNW,342,0.0,0.0,90,0.00,,,0.00,0.00,VWS V14.01,2013-06-28 06:32:00,
2013-06-28 02:33:00,72.0,68.9,29.62,NNW,342,2.0,2.0,90,0.00,,,0.00,0.00,VWS V14.01,2013-06-28 06:33:00,
2013-06-28 02:37:00,71.9,68.8,29.61,NNW,342,0.0,0.0,90,0.00,,,0.00,0.00,VWS V14.01,2013-06-28 06:37:00,
2013-06-28 02:38:00,71.9,68.8,29.61,NNW,342,0.0,0.0,90,0.00,,,0.00,0.00,VWS V14.01,2013-06-28 06:38:00,
2013-06-28 02:39:00,71.9,68.8,29.62,NNW,342,0.0,1.0,90,0.00,,,0.00,0.00,VWS V14.01,2013-06-28 06:39:00,
2013-06-28 02:42:00,71.9,68.5,29.62,NNW,342,1.0,1.0,89,0.00,,,0.00,0.00,VWS V14.01,2013-06-28 06:42:00,
2013-06-28 02:43:00,71.9,68.5,29.62,NNW,342,5.0,5.0,89,0.00,,,0.00,0.00,VWS V14.01,2013-06-28 06:43:00,
2013-06-28 02:44:00,71.9,68.5,29.62,NNW,342,0.0,5.0,89,0.00,,,0.00,0.00,VWS V14.01,2013-06-28 06:44:00,
2013-06-28 02:47:00,71.9,68.5,29.62,NNW,342,2.0,2.0,89,0.00,,,0.00,0.00,VWS V14.01,2013-06-28 06:47:00,
2013-06-28 02:48:00,71.8,68.4,29.62,NNW,342,2.0,3.0,89,0.00,,,0.00,0.00,VWS V14.01,2013-06-28 06:48:00,
2013-06-28 02:49:00,71.8,68.4,29.62,NNW,342,0.0,3.0,89,0.00,,,0.00,0.00,VWS V14.01,2013-06-28 06:49:00,
2013-06-28 02:52:00,71.8,68.1,29.62,NNW,342,0.0,0.0,88,0.00,,,0.00,0.00,VWS V14.01,2013-06-28 06:52:00,
2013-06-28 02:53:00,71.8,68.1,29.62,NNW,344,5.0,5.0,88,0.00,,,0.00,0.00,VWS V14.01,2013-06-28 06:53:00,
2013-06-28 02:54:00,71.8,68.1,29.62,NNW,344,0.0,5.0,88,0.00,,,0.00,0.00,VWS V14.01,2013-06-28 06:54:00,
2013-06-28 02:57:00,71.8,68.1,29.61,NNW,344,2.0,2.0,88,0.00,,,0.00,0.00,VWS V14.01,2013-06-28 06:57:00,
2013-06-28 02:58:00,71.8,68.1,29.61,NNW,344,1.0,1.0,88,0.00,,,0.00,0.00,VWS V14.01,2013-06-28 06:58:00,
2013-06-28 02:59:00,71.8,68.1,29.61,NNW,344,0.0,1.0,88,0.00,,,0.00,0.00,VWS V14.01,2013-06-28 06:59:00,
2013-06-28 03:02:00,71.7,68.0,29.62,North,5,2.0,3.0,88,0.00,,,0.00,0.00,VWS V14.01,2013-06-28 07:02:00,
2013-06-28 03:03:00,71.7,68.0,29.62,North,5,0.0,0.0,88,0.00,,,0.00,0.00,VWS V14.01,2013-06-28 07:03:00,
2013-06-28 03:04:00,71.7,68.0,29.62,North,5,0.0,1.0,88,0.00,,,0.00,0.00,VWS V14.01,2013-06-28 07:04:00,
2013-06-28 03:07:00,71.6,68.2,29.61,North,5,0.0,1.0,89,0.00,,,0.00,0.00,VWS V14.01,2013-06-28 07:07:00,
2013-06-28 03:08:00,71.5,68.1,29.61,North,5,0.0,0.0,89,0.00,,,0.00,0.00,VWS V14.01,2013-06-28 07:08:00,
2013-06-28 03:09:00,71.5,68.1,29.61,North,5,1.0,1.0,89,0.00,,,0.00,0.00,VWS V14.01,2013-06-28 07:09:00,
2013-06-28 03:12:00,71.4,68.0,29.61,North,5,0.0,1.0,89,0.00,,,0.00,0.00,VWS V14.01,2013-06-28 07:12:00,
2013-06-28 03:13:00,71.4,68.0,29.61,North,5,0.0,0.0,89,0.00,,,0.00,0.00,VWS V14.01,2013-06-28 07:13:00,
2013-06-28 03:14:00,71.4,68.0,29.61,North,5,0.0,1.0,89,0.00,,,0.00,0.00,VWS V14.01,2013-06-28 07:14:00,
2013-06-28 03:18:00,71.3,67.9,29.61,North,5,0.0,1.0,89,0.00,,,0.00,0.00,VWS V14.01,2013-06-28 07:18:00,
2013-06-28 03:19:00,71.3,67.9,29.61,North,5,1.0,1.0,89,0.00,,,0.00,0.00,VWS V14.01,2013-06-28 07:19:00,
2013-06-28 03:23:00,71.2,67.8,29.61,North,5,0.0,1.0,89,0.00,,,0.00,0.00,VWS V14.01,2013-06-28 07:23:00,
2013-06-28 03:24:00,71.2,67.8,29.61,North,5,0.0,4.0,89,0.00,,,0.00,0.00,VWS V14.01,2013-06-28 07:24:00,
2013-06-28 03:28:00,71.2,67.8,29.61,North,360,0.0,1.0,89,0.00,,,0.00,0.00,VWS V14.01,2013-06-28 07:28:00,
2013-06-28 03:29:00,71.2,67.8,29.61,North,360,0.0,1.0,89,0.00,,,0.00,0.00,VWS V14.01,2013-06-28 07:29:00,
2013-06-28 03:33:00,71.1,67.7,29.61,North,360,0.0,0.0,89,0.00,,,0.00,0.00,VWS V14.01,2013-06-28 07:33:00,
2013-06-28 03:34:00,71.1,67.7,29.61,North,360,0.0,1.0,89,0.00,,,0.00,0.00,VWS V14.01,2013-06-28 07:34:00,
2013-06-28 03:38:00,71.0,67.6,29.61,North,360,0.0,0.0,89,0.00,,,0.00,0.00,VWS V14.01,2013-06-28 07:38:00,
2013-06-28 03:39:00,71.0,67.6,29.61,North,360,0.0,0.0,89,0.00,,,0.00,0.00,VWS V14.01,2013-06-28 07:39:00,
2013-06-28 03:43:00,70.9,67.5,29.61,North,360,0.0,0.0,89,0.00,,,0.00,0.00,VWS V14.01,2013-06-28 07:43:00,
2013-06-28 03:44:00,70.8,67.4,29.61,North,360,0.0,2.0,89,0.00,,,0.00,0.00,VWS V14.01,2013-06-28 07:44:00,
2013-06-28 03:48:00,70.8,67.4,29.60,North,360,0.0,2.0,89,0.00,,,0.00,0.00,VWS V14.01,2013-06-28 07:48:00,
2013-06-28 03:49:00,70.7,67.3,29.60,North,360,0.0,2.0,89,0.00,,,0.00,0.00,VWS V14.01,2013-06-28 07:49:00,
2013-06-28 03:53:00,70.6,67.2,29.60,North,360,0.0,1.0,89,0.00,,,0.00,0.00,VWS V14.01,2013-06-28 07:53:00,
2013-06-28 03:54:00,70.7,67.3,29.60,North,360,0.0,1.0,89,0.00,,,0.00,0.00,VWS V14.01,2013-06-28 07:54:00,
2013-06-28 03:55:00,70.6,67.2,29.60,North,360,0.0,0.0,89,0.00,,,0.00,0.00,VWS V14.01,2013-06-28 07:55:00,
2013-06-28 03:58:00,70.5,67.1,29.60,North,360,0.0,0.0,89,0.00,,,0.00,0.00,VWS V14.01,2013-06-28 07:58:00,
2013-06-28 03:59:00,70.5,67.1,29.60,North,360,0.0,0.0,89,0.00,,,0.00,0.00,VWS V14.01,2013-06-28 07:59:00,
2013-06-28 04:00:00,70.5,67.1,29.60,North,360,1.0,1.0,89,0.00,,,0.00,0.00,VWS V14.01,2013-06-28 08:00:00,
2013-06-28 04:03:00,70.4,67.0,29.60,North,360,0.0,0.0,89,0.00,,,0.00,0.00,VWS V14.01,2013-06-28 08:03:00,
2013-06-28 04:04:00,70.4,67.0,29.60,North,360,0.0,0.0,89,0.00,,,0.00,0.00,VWS V14.01,2013-06-28 08:04:00,
2013-06-28 04:05:00,70.3,67.2,29.60,North,360,0.0,0.0,90,0.00,,,0.00,0.00,VWS V14.01,2013-06-28 08:05:00,
2013-06-28 04:08:00,70.2,67.1,29.60,North,360,0.0,0.0,90,0.00,,,0.00,0.00,VWS V14.01,2013-06-28 08:08:00,
2013-06-28 04:09:00,70.2,67.1,29.60,North,360,0.0,0.0,90,0.00,,,0.00,0.00,VWS V14.01,2013-06-28 08:09:00,
2013-06-28 04:10:00,70.2,67.1,29.60,North,360,0.0,0.0,90,0.00,,,0.00,0.00,VWS V14.01,2013-06-28 08:10:00,
2013-06-28 04:13:00,70.1,67.0,29.60,North,360,0.0,0.0,90,0.00,,,0.00,0.00,VWS V14.01,2013-06-28 08:13:00,
2013-06-28 04:14:00,70.1,67.0,29.60,North,360,0.0,0.0,90,0.00,,,0.00,0.00,VWS V14.01,2013-06-28 08:14:00,
2013-06-28 04:15:00,70.1,67.0,29.60,North,360,0.0,0.0,90,0.00,,,0.00,0.00,VWS V14.01,2013-06-28 08:15:00,
2013-06-28 04:18:00,70.0,67.3,29.60,North,360,0.0,0.0,91,0.00,,,0.00,0.00,VWS V14.01,2013-06-28 08:18:00,
2013-06-28 04:19:00,70.0,67.3,29.60,North,360,1.0,1.0,91,0.00,,,0.00,0.00,VWS V14.01,2013-06-28 08:19:00,
2013-06-28 04:20:00,70.0,67.3,29.60,North,360,0.0,1.0,91,0.00,,,0.00,0.00,VWS V14.01,2013-06-28 08:20:00,
2013-06-28 04:23:00,69.9,67.2,29.60,North,360,0.0,0.0,91,0.00,,,0.00,0.00,VWS V14.01,2013-06-28 08:23:00,
2013-06-28 04:24:00,69.9,67.2,29.60,North,360,0.0,0.0,91,0.00,,,0.00,0.00,VWS V14.01,2013-06-28 08:24:00,
2013-06-28 04:25:00,69.9,67.2,29.60,North,360,0.0,0.0,91,0.00,,,0.00,0.00,VWS V14.01,2013-06-28 08:25:00,
2013-06-28 04:28:00,69.8,67.1,29.60,North,360,0.0,1.0,91,0.00,,,0.00,0.00,VWS V14.01,2013-06-28 08:28:00,
2013-06-28 04:29:00,69.8,67.1,29.60,North,360,0.0,2.0,91,0.00,,,0.00,0.00,VWS V14.01,2013-06-28 08:29:00,
2013-06-28 04:30:00,69.8,67.1,29.60,North,360,0.0,2.0,91,0.00,,,0.00,0.00,VWS V14.01,2013-06-28 08:30:00,
2013-06-28 04:33:00,69.7,67.0,29.60,North,360,0.0,0.0,91,0.00,,,0.00,0.00,VWS V14.01,2013-06-28 08:33:00,
2013-06-28 04:34:00,69.7,67.0,29.60,North,360,0.0,0.0,91,0.00,,,0.00,0.00,VWS V14.01,2013-06-28 08:34:00,
2013-06-28 04:35:00,69.7,67.0,29.60,North,360,0.0,0.0,91,0.00,,,0.00,0.00,VWS V14.01,2013-06-28 08:35:00,
2013-06-28 04:38:00,69.6,66.9,29.60,North,360,0.0,0.0,91,0.00,,,0.00,0.00,VWS V14.01,2013-06-28 08:38:00,
2013-06-28 04:39:00,69.6,66.9,29.60,North,360,0.0,0.0,91,0.00,,,0.00,0.00,VWS V14.01,2013-06-28 08:39:00,
2013-06-28 04:40:00,69.5,66.8,29.60,North,360,0.0,0.0,91,0.00,,,0.00,0.00,VWS V14.01,2013-06-28 08:40:00,
2013-06-28 04:44:00,69.5,67.1,29.60,North,360,0.0,0.0,92,0.00,,,0.00,0.00,VWS V14.01,2013-06-28 08:44:00,
2013-06-28 04:45:00,69.4,67.0,29.60,North,360,0.0,0.0,92,0.00,,,0.00,0.00,VWS V14.01,2013-06-28 08:45:00,
2013-06-28 04:49:00,69.4,67.0,29.60,North,360,0.0,0.0,92,0.00,,,0.00,0.00,VWS V14.01,2013-06-28 08:49:00,
2013-06-28 04:50:00,69.3,66.9,29.61,North,360,0.0,0.0,92,0.00,,,0.00,0.00,VWS V14.01,2013-06-28 08:50:00,
2013-06-28 04:54:00,69.2,66.8,29.61,North,360,0.0,0.0,92,0.00,,,0.00,0.00,VWS V14.01,2013-06-28 08:54:00,
2013-06-28 04:55:00,69.2,66.8,29.61,North,360,0.0,0.0,92,0.00,,,0.00,0.00,VWS V14.01,2013-06-28 08:55:00,
2013-06-28 04:59:00,69.1,66.7,29.60,North,360,0.0,0.0,92,0.00,,,0.00,0.00,VWS V14.01,2013-06-28 08:59:00,
2013-06-28 05:00:00,69.1,66.7,29.60,North,360,0.0,1.0,92,0.00,,,0.00,0.00,VWS V14.01,2013-06-28 09:00:00,
2013-06-28 05:04:00,69.0,66.6,29.60,North,360,0.0,0.0,92,0.00,,,0.00,0.00,VWS V14.01,2013-06-28 09:04:00,
2013-06-28 05:05:00,69.0,66.6,29.60,North,360,4.0,4.0,92,0.00,,,0.00,0.00,VWS V14.01,2013-06-28 09:05:00,
2013-06-28 05:09:00,68.9,66.5,29.60,North,360,0.0,1.0,92,0.00,,,0.00,0.00,VWS V14.01,2013-06-28 09:09:00,
2013-06-28 05:10:00,68.9,66.5,29.60,North,360,1.0,1.0,92,0.00,,,0.00,0.00,VWS V14.01,2013-06-28 09:10:00,
2013-06-28 05:14:00,68.9,66.5,29.60,North,360,0.0,0.0,92,0.00,,,0.00,0.00,VWS V14.01,2013-06-28 09:14:00,
2013-06-28 05:15:00,68.9,66.5,29.60,North,360,0.0,0.0,92,0.00,,,0.00,0.00,VWS V14.01,2013-06-28 09:15:00,
2013-06-28 05:19:00,68.8,66.4,29.60,North,360,0.0,0.0,92,0.00,,,0.00,0.00,VWS V14.01,2013-06-28 09:19:00,
2013-06-28 05:20:00,68.8,66.4,29.60,North,360,0.0,0.0,92,0.00,,,0.00,0.00,VWS V14.01,2013-06-28 09:20:00,
2013-06-28 05:24:00,68.8,66.4,29.61,North,360,0.0,2.0,92,0.00,,,0.00,0.00,VWS V14.01,2013-06-28 09:24:00,
2013-06-28 05:25:00,68.7,66.3,29.61,North,360,0.0,0.0,92,0.00,,,0.00,0.00,VWS V14.01,2013-06-28 09:25:00,
2013-06-28 05:26:00,68.7,66.3,29.61,North,360,0.0,0.0,92,0.00,,,0.00,0.00,VWS V14.01,2013-06-28 09:26:00,
2013-06-28 05:29:00,68.6,66.2,29.60,NNW,333,0.0,0.0,92,0.00,,,0.00,0.00,VWS V14.01,2013-06-28 09:29:00,
2013-06-28 05:30:00,68.6,66.2,29.60,NNW,333,0.0,0.0,92,0.00,,,0.00,0.00,VWS V14.01,2013-06-28 09:30:00,
2013-06-28 05:31:00,68.7,66.3,29.60,NNW,333,1.0,1.0,92,0.00,,,0.00,0.00,VWS V14.01,2013-06-28 09:31:00,
2013-06-28 05:34:00,68.6,65.9,29.60,NNW,333,3.0,3.0,91,0.00,,,0.00,0.00,VWS V14.01,2013-06-28 09:34:00,
2013-06-28 05:35:00,68.6,65.9,29.60,NNW,334,1.0,1.0,91,0.00,,,0.00,0.00,VWS V14.01,2013-06-28 09:35:00,
2013-06-28 05:36:00,68.6,65.9,29.60,NNW,334,1.0,3.0,91,0.00,,,0.00,0.00,VWS V14.01,2013-06-28 09:36:00,
2013-06-28 05:39:00,68.6,65.9,29.60,East,94,0.0,0.0,91,0.00,,,0.00,0.00,VWS V14.01,2013-06-28 09:39:00,
2013-06-28 05:40:00,68.6,65.9,29.60,NE,36,0.0,0.0,91,0.00,,,0.00,0.00,VWS V14.01,2013-06-28 09:40:00,
2013-06-28 05:41:00,68.6,65.9,29.60,NE,36,0.0,0.0,91,0.00,,,0.00,0.00,VWS V14.01,2013-06-28 09:41:00,
2013-06-28 05:44:00,68.6,65.9,29.60,NNE,18,3.0,3.0,91,0.00,,,0.00,0.00,VWS V14.01,2013-06-28 09:44:00,
2013-06-28 05:45:00,68.6,65.9,29.60,NNE,18,0.0,0.0,91,0.00,,,0.00,0.00,VWS V14.01,2013-06-28 09:45:00,
2013-06-28 05:46:00,68.6,65.9,29.60,NNE,18,1.0,1.0,91,0.00,,,0.00,0.00,VWS V14.01,2013-06-28 09:46:00,
2013-06-28 05:49:00,68.6,65.9,29.60,NNE,17,2.0,2.0,91,0.00,,,0.00,0.00,VWS V14.01,2013-06-28 09:49:00,
2013-06-28 05:50:00,68.6,65.9,29.60,NNE,17,0.0,1.0,91,0.00,,,0.00,0.00,VWS V14.01,2013-06-28 09:50:00,
2013-06-28 05:51:00,68.5,65.8,29.60,NNE,17,0.0,1.0,91,0.00,,,0.00,0.00,VWS V14.01,2013-06-28 09:51:00,
2013-06-28 05:54:00,68.5,65.5,29.60,NNE,16,0.0,0.0,90,0.00,,,0.00,0.00,VWS V14.01,2013-06-28 09:54:00,
2013-06-28 05:56:00,68.5,65.5,29.60,NNE,16,0.0,1.0,90,0.00,,,0.00,0.00,VWS V14.01,2013-06-28 09:56:00,
2013-06-28 05:59:00,68.5,65.5,29.60,ENE,71,1.0,2.0,90,0.00,,,0.00,0.00,VWS V14.01,2013-06-28 09:59:00,
2013-06-28 06:01:00,68.5,65.5,29.60,NNE,25,0.0,1.0,90,0.00,,,0.00,0.00,VWS V14.01,2013-06-28 10:01:00,
2013-06-28 06:04:00,68.5,65.5,29.60,NNE,13,1.0,1.0,90,0.00,,,0.00,0.00,VWS V14.01,2013-06-28 10:04:00,
2013-06-28 06:06:00,68.5,65.5,29.60,North,9,0.0,1.0,90,0.00,,,0.00,0.00,VWS V14.01,2013-06-28 10:06:00,
2013-06-28 06:09:00,68.4,65.4,29.60,North,9,0.0,1.0,90,0.00,,,0.00,0.00,VWS V14.01,2013-06-28 10:09:00,
2013-06-28 06:11:00,68.4,65.4,29.60,North,5,0.0,3.0,90,0.00,,,0.00,0.00,VWS V14.01,2013-06-28 10:11:00,
2013-06-28 06:14:00,68.4,65.4,29.60,North,5,0.0,1.0,90,0.00,,,0.00,0.00,VWS V14.01,2013-06-28 10:14:00,
2013-06-28 06:16:00,68.4,65.4,29.60,North,5,1.0,6.0,90,0.00,,,0.00,0.00,VWS V14.01,2013-06-28 10:16:00,
2013-06-28 06:19:00,68.3,65.3,29.60,North,5,0.0,0.0,90,0.00,,,0.00,0.00,VWS V14.01,2013-06-28 10:19:00,
2013-06-28 06:21:00,68.3,65.3,29.60,North,5,1.0,4.0,90,0.00,,,0.00,0.00,VWS V14.01,2013-06-28 10:21:00,
2013-06-28 06:24:00,68.2,65.2,29.60,North,5,0.0,0.0,90,0.00,,,0.00,0.00,VWS V14.01,2013-06-28 10:24:00,
2013-06-28 06:26:00,68.1,65.1,29.60,North,5,0.0,2.0,90,0.00,,,0.00,0.00,VWS V14.01,2013-06-28 10:26:00,
2013-06-28 06:29:00,68.1,65.1,29.60,North,5,0.0,1.0,90,0.00,,,0.00,0.00,VWS V14.01,2013-06-28 10:29:00,
2013-06-28 06:31:00,68.0,65.0,29.60,North,5,0.0,1.0,90,0.00,,,0.00,0.00,VWS V14.01,2013-06-28 10:31:00,
2013-06-28 06:35:00,68.0,65.0,29.60,North,5,0.0,0.0,90,0.00,,,0.00,0.00,VWS V14.01,2013-06-28 10:35:00,
2013-06-28 06:36:00,68.0,65.0,29.60,North,5,0.0,1.0,90,0.00,,,0.00,0.00,VWS V14.01,2013-06-28 10:36:00,
2013-06-28 06:37:00,68.0,65.0,29.60,North,5,0.0,1.0,90,0.00,,,0.00,0.00,VWS V14.01,2013-06-28 10:37:00,
2013-06-28 06:40:00,68.0,65.0,29.60,North,5,1.0,1.0,90,0.00,,,0.00,0.00,VWS V14.01,2013-06-28 10:40:00,
2013-06-28 06:41:00,67.9,64.9,29.60,NW,308,0.0,0.0,90,0.00,,,0.00,0.00,VWS V14.01,2013-06-28 10:41:00,
2013-06-28 06:42:00,67.9,64.9,29.60,NW,308,0.0,1.0,90,0.00,,,0.00,0.00,VWS V14.01,2013-06-28 10:42:00,
2013-06-28 06:45:00,68.0,65.0,29.60,NW,308,0.0,1.0,90,0.00,,,0.00,0.00,VWS V14.01,2013-06-28 10:45:00,
2013-06-28 06:46:00,68.1,65.1,29.60,NW,308,0.0,1.0,90,0.00,,,0.00,0.00,VWS V14.01,2013-06-28 10:46:00,
2013-06-28 06:47:00,68.1,64.7,29.60,NW,308,0.0,1.0,89,0.00,,,0.00,0.00,VWS V14.01,2013-06-28 10:47:00,
2013-06-28 06:50:00,68.2,64.8,29.60,NW,317,0.0,2.0,89,0.00,,,0.00,0.00,VWS V14.01,2013-06-28 10:50:00,
2013-06-28 06:51:00,68.3,64.9,29.60,NW,317,0.0,0.0,89,0.00,,,0.00,0.00,VWS V14.01,2013-06-28 10:51:00,
2013-06-28 06:52:00,68.3,64.9,29.60,NW,317,0.0,0.0,89,0.00,,,0.00,0.00,VWS V14.01,2013-06-28 10:52:00,
2013-06-28 06:55:00,68.4,65.0,29.60,NW,317,0.0,1.0,89,0.00,,,0.00,0.00,VWS V14.01,2013-06-28 10:55:00,
2013-06-28 06:56:00,68.5,65.1,29.61,NW,317,0.0,0.0,89,0.00,,,0.00,0.00,VWS V14.01,2013-06-28 10:56:00,
2013-06-28 06:57:00,68.4,65.0,29.61,NW,317,0.0,0.0,89,0.00,,,0.00,0.00,VWS V14.01,2013-06-28 10:57:00,
2013-06-28 07:00:00,68.5,65.1,29.61,NW,317,0.0,0.0,89,0.00,,,0.00,0.00,VWS V14.01,2013-06-28 11:00:00,
2013-06-28 07:01:00,68.6,65.2,29.61,NW,317,0.0,0.0,89,0.00,,,0.00,0.00,VWS V14.01,2013-06-28 11:01:00,
2013-06-28 07:02:00,68.6,65.2,29.61,NW,317,0.0,0.0,89,0.00,,,0.00,0.00,VWS V14.01,2013-06-28 11:02:00,
2013-06-28 07:05:00,68.7,65.0,29.61,NW,317,0.0,1.0,88,0.00,,,0.00,0.00,VWS V14.01,2013-06-28 11:05:00,
2013-06-28 07:06:00,68.8,65.1,29.60,NW,317,0.0,1.0,88,0.00,,,0.00,0.00,VWS V14.01,2013-06-28 11:06:00,
2013-06-28 07:07:00,68.8,65.1,29.60,NW,317,0.0,1.0,88,0.00,,,0.00,0.00,VWS V14.01,2013-06-28 11:07:00,
2013-06-28 07:10:00,68.9,65.2,29.60,NW,317,0.0,0.0,88,0.00,,,0.00,0.00,VWS V14.01,2013-06-28 11:10:00,
2013-06-28 07:11:00,68.9,65.2,29.61,NW,317,0.0,0.0,88,0.00,,,0.00,0.00,VWS V14.01,2013-06-28 11:11:00,
2013-06-28 07:12:00,68.9,65.2,29.61,NW,317,0.0,0.0,88,0.00,,,0.00,0.00,VWS V14.01,2013-06-28 11:12:00,
2013-06-28 07:15:00,69.0,65.3,29.61,NW,317,1.0,1.0,88,0.00,,,0.00,0.00,VWS V14.01,2013-06-28 11:15:00,
2013-06-28 07:17:00,69.0,65.0,29.61,NW,324,0.0,1.0,87,0.00,,,0.00,0.00,VWS V14.01,2013-06-28 11:17:00,
2013-06-28 07:20:00,69.1,65.1,29.60,NW,324,0.0,1.0,87,0.00,,,0.00,0.00,VWS V14.01,2013-06-28 11:20:00,
2013-06-28 07:22:00,69.2,65.2,29.60,NW,323,0.0,0.0,87,0.00,,,0.00,0.00,VWS V14.01,2013-06-28 11:22:00,
2013-06-28 07:25:00,69.2,64.8,29.60,NW,324,0.0,0.0,86,0.00,,,0.00,0.00,VWS V14.01,2013-06-28 11:25:00,
2013-06-28 07:27:00,69.3,64.9,29.60,North,5,2.0,2.0,86,0.00,,,0.00,0.00,VWS V14.01,2013-06-28 11:27:00,
2013-06-28 07:30:00,69.4,65.0,29.60,NNW,339,2.0,3.0,86,0.00,,,0.00,0.00,VWS V14.01,2013-06-28 11:30:00,
2013-06-28 07:32:00,69.4,65.0,29.60,North,355,2.0,4.0,86,0.00,,,0.00,0.00,VWS V14.01,2013-06-28 11:32:00,
2013-06-28 07:35:00,69.5,65.1,29.60,North,355,0.0,0.0,86,0.00,,,0.00,0.00,VWS V14.01,2013-06-28 11:35:00,
2013-06-28 07:37:00,69.5,65.1,29.60,North,355,3.0,4.0,86,0.00,,,0.00,0.00,VWS V14.01,2013-06-28 11:37:00,
2013-06-28 07:40:00,69.7,65.0,29.60,North,5,1.0,4.0,85,0.00,,,0.00,0.00,VWS V14.01,2013-06-28 11:40:00,
2013-06-28 07:42:00,69.7,65.0,29.60,North,350,2.0,5.0,85,0.00,,,0.00,0.00,VWS V14.01,2013-06-28 11:42:00,
2013-06-28 07:43:00,69.7,65.0,29.60,North,350,0.0,3.0,85,0.00,,,0.00,0.00,VWS V14.01,2013-06-28 11:43:00,
2013-06-28 07:45:00,69.8,65.1,29.60,North,350,4.0,5.0,85,0.00,,,0.00,0.00,VWS V14.01,2013-06-28 11:45:00,
2013-06-28 07:47:00,69.9,65.2,29.60,North,350,0.0,2.0,85,0.00,,,0.00,0.00,VWS V14.01,2013-06-28 11:47:00,
2013-06-28 07:48:00,69.9,65.2,29.60,North,350,1.0,2.0,85,0.00,,,0.00,0.00,VWS V14.01,2013-06-28 11:48:00,
2013-06-28 07:50:00,70.0,65.3,29.60,North,355,3.0,5.0,85,0.00,,,0.00,0.00,VWS V14.01,2013-06-28 11:50:00,
2013-06-28 07:52:00,70.1,65.4,29.60,North,355,1.0,4.0,85,0.00,,,0.00,0.00,VWS V14.01,2013-06-28 11:52:00,
2013-06-28 07:53:00,70.1,65.1,29.60,North,355,2.0,3.0,84,0.00,,,0.00,0.00,VWS V14.01,2013-06-28 11:53:00,
2013-06-28 07:56:00,70.2,65.1,29.60,North,9,0.0,1.0,84,0.00,,,0.00,0.00,VWS V14.01,2013-06-28 11:56:00,
2013-06-28 07:57:00,70.3,65.2,29.60,North,9,0.0,4.0,84,0.00,,,0.00,0.00,VWS V14.01,2013-06-28 11:57:00,
2013-06-28 07:58:00,70.3,65.2,29.60,North,9,3.0,3.0,84,0.00,,,0.00,0.00,VWS V14.01,2013-06-28 11:58:00,
2013-06-28 08:01:00,70.4,65.0,29.60,North,5,4.0,4.0,83,0.00,,,0.00,0.00,VWS V14.01,2013-06-28 12:01:00,
2013-06-28 08:02:00,70.4,65.3,29.60,NNW,336,2.0,5.0,84,0.00,,,0.00,0.00,VWS V14.01,2013-06-28 12:02:00,
2013-06-28 08:03:00,70.4,65.3,29.60,NNW,336,0.0,1.0,84,0.00,,,0.00,0.00,VWS V14.01,2013-06-28 12:03:00,
2013-06-28 08:06:00,70.5,65.1,29.60,NNW,343,0.0,2.0,83,0.00,,,0.00,0.00,VWS V14.01,2013-06-28 12:06:00,
2013-06-28 08:07:00,70.5,65.1,29.60,NNW,331,0.0,3.0,83,0.00,,,0.00,0.00,VWS V14.01,2013-06-28 12:07:00,
2013-06-28 08:08:00,70.6,65.2,29.60,NNW,331,1.0,1.0,83,0.00,,,0.00,0.00,VWS V14.01,2013-06-28 12:08:00,
2013-06-28 08:11:00,70.7,65.3,29.60,NNW,345,2.0,3.0,83,0.00,,,0.00,0.00,VWS V14.01,2013-06-28 12:11:00,
2013-06-28 08:12:00,70.8,65.4,29.60,NNW,345,0.0,0.0,83,0.00,,,0.00,0.00,VWS V14.01,2013-06-28 12:12:00,
2013-06-28 08:13:00,70.8,65.4,29.60,NNW,344,1.0,1.0,83,0.00,,,0.00,0.00,VWS V14.01,2013-06-28 12:13:00,
2013-06-28 08:16:00,70.9,65.5,29.60,NNW,338,3.0,5.0,83,0.00,,,0.00,0.00,VWS V14.01,2013-06-28 12:16:00,
2013-06-28 08:17:00,70.9,65.5,29.60,NW,320,4.0,4.0,83,0.00,,,0.00,0.00,VWS V14.01,2013-06-28 12:17:00,
2013-06-28 08:18:00,71.0,65.6,29.60,NW,325,3.0,4.0,83,0.00,,,0.00,0.00,VWS V14.01,2013-06-28 12:18:00,
2013-06-28 08:21:00,71.0,65.2,29.60,NNW,328,2.0,5.0,82,0.00,,,0.00,0.00,VWS V14.01,2013-06-28 12:21:00,
2013-06-28 08:22:00,71.1,65.3,29.60,NNW,334,5.0,5.0,82,0.00,,,0.00,0.00,VWS V14.01,2013-06-28 12:22:00,
2013-06-28 08:23:00,71.1,65.3,29.60,NNW,334,0.0,5.0,82,0.00,,,0.00,0.00,VWS V14.01,2013-06-28 12:23:00,
2013-06-28 08:26:00,71.2,65.1,29.60,NNE,17,3.0,7.0,81,0.00,,,0.00,0.00,VWS V14.01,2013-06-28 12:26:00,
2013-06-28 08:27:00,71.2,65.1,29.60,NNE,23,2.0,5.0,81,0.00,,,0.00,0.00,VWS V14.01,2013-06-28 12:27:00,
2013-06-28 08:28:00,71.2,65.1,29.60,North,5,3.0,6.0,81,0.00,,,0.00,0.00,VWS V14.01,2013-06-28 12:28:00,
2013-06-28 08:31:00,71.1,65.0,29.60,North,360,1.0,7.0,81,0.00,,,0.00,0.00,VWS V14.01,2013-06-28 12:31:00,
2013-06-28 08:32:00,71.1,65.0,29.60,North,355,1.0,3.0,81,0.00,,,0.00,0.00,VWS V14.01,2013-06-28 12:32:00,
2013-06-28 08:33:00,71.1,65.0,29.60,North,355,2.0,3.0,81,0.00,,,0.00,0.00,VWS V14.01,2013-06-28 12:33:00,
2013-06-28 08:36:00,71.0,65.2,29.61,North,360,3.0,9.0,82,0.00,,,0.00,0.00,VWS V14.01,2013-06-28 12:36:00,
2013-06-28 08:37:00,70.9,65.1,29.60,North,349,5.0,5.0,82,0.00,,,0.00,0.00,VWS V14.01,2013-06-28 12:37:00,
2013-06-28 08:38:00,70.8,65.0,29.60,North,360,3.0,5.0,82,0.00,,,0.00,0.00,VWS V14.01,2013-06-28 12:38:00,
2013-06-28 08:41:00,70.7,64.9,29.60,NNW,341,0.0,7.0,82,0.00,,,0.00,0.00,VWS V14.01,2013-06-28 12:41:00,
2013-06-28 08:42:00,70.6,65.2,29.60,North,5,2.0,4.0,83,0.00,,,0.00,0.00,VWS V14.01,2013-06-28 12:42:00,
2013-06-28 08:43:00,70.6,65.2,29.61,North,5,0.0,0.0,83,0.00,,,0.00,0.00,VWS V14.01,2013-06-28 12:43:00,
2013-06-28 08:46:00,70.8,65.4,29.60,NNW,339,0.0,1.0,83,0.00,,,0.00,0.00,VWS V14.01,2013-06-28 12:46:00,
2013-06-28 08:47:00,70.8,65.4,29.61,North,5,2.0,4.0,83,0.00,,,0.00,0.00,VWS V14.01,2013-06-28 12:47:00,
2013-06-28 08:48:00,70.9,65.5,29.60,North,360,0.0,4.0,83,0.00,,,0.00,0.00,VWS V14.01,2013-06-28 12:48:00,
2013-06-28 08:51:00,71.1,65.7,29.61,North,350,0.0,2.0,83,0.00,,,0.00,0.00,VWS V14.01,2013-06-28 12:51:00,
2013-06-28 08:53:00,71.2,65.8,29.61,NNE,19,2.0,3.0,83,0.00,,,0.00,0.00,VWS V14.01,2013-06-28 12:53:00,
2013-06-28 08:56:00,71.5,65.7,29.60,NNE,13,4.0,6.0,82,0.00,,,0.00,0.00,VWS V14.01,2013-06-28 12:56:00,
2013-06-28 08:58:00,71.6,65.8,29.60,NNE,13,0.0,3.0,82,0.00,,,0.00,0.00,VWS V14.01,2013-06-28 12:58:00,
2013-06-28 09:01:00,71.9,65.8,29.60,NNW,348,2.0,2.0,81,0.00,,,0.00,0.00,VWS V14.01,2013-06-28 13:01:00,
2013-06-28 09:03:00,71.9,66.1,29.60,North,355,3.0,4.0,82,0.00,,,0.00,0.00,VWS V14.01,2013-06-28 13:03:00,
2013-06-28 09:06:00,72.2,66.1,29.60,North,355,2.0,2.0,81,0.00,,,0.00,0.00,VWS V14.01,2013-06-28 13:06:00,
2013-06-28 09:08:00,72.2,66.1,29.60,North,350,0.0,5.0,81,0.00,,,0.00,0.00,VWS V14.01,2013-06-28 13:08:00,
2013-06-28 09:12:00,72.4,66.2,29.61,North,355,4.0,4.0,81,0.00,,,0.00,0.00,VWS V14.01,2013-06-28 13:12:00,
2013-06-28 09:13:00,72.5,66.0,29.61,NNW,342,2.0,2.0,80,0.00,,,0.00,0.00,VWS V14.01,2013-06-28 13:13:00,
2013-06-28 09:17:00,72.8,66.3,29.60,North,349,1.0,8.0,80,0.00,,,0.00,0.00,VWS V14.01,2013-06-28 13:17:00,
2013-06-28 09:18:00,72.8,66.3,29.60,NE,51,2.0,2.0,80,0.00,,,0.00,0.00,VWS V14.01,2013-06-28 13:18:00,
2013-06-28 09:19:00,72.9,66.4,29.60,NNW,339,4.0,8.0,80,0.00,,,0.00,0.00,VWS V14.01,2013-06-28 13:19:00,
2013-06-28 09:22:00,73.1,66.6,29.60,NNW,336,1.0,3.0,80,0.00,,,0.00,0.00,VWS V14.01,2013-06-28 13:22:00,
2013-06-28 09:23:00,73.1,66.6,29.60,NNW,336,2.0,2.0,80,0.00,,,0.00,0.00,VWS V14.01,2013-06-28 13:23:00,
2013-06-28 09:24:00,73.1,66.6,29.60,NNW,336,0.0,2.0,80,0.00,,,0.00,0.00,VWS V14.01,2013-06-28 13:24:00,
2013-06-28 09:27:00,73.2,66.3,29.60,NNW,346,2.0,7.0,79,0.00,,,0.00,0.00,VWS V14.01,2013-06-28 13:27:00,
2013-06-28 09:28:00,73.3,66.4,29.60,North,350,4.0,5.0,79,0.00,,,0.00,0.00,VWS V14.01,2013-06-28 13:28:00,
2013-06-28 09:29:00,73.3,66.4,29.60,North,350,2.0,5.0,79,0.00,,,0.00,0.00,VWS V14.01,2013-06-28 13:29:00,
2013-06-28 09:32:00,73.4,66.5,29.60,NNE,22,0.0,5.0,79,0.00,,,0.00,0.00,VWS V14.01,2013-06-28 13:32:00,
2013-06-28 09:33:00,73.5,66.6,29.60,North,5,3.0,3.0,79,0.00,,,0.00,0.00,VWS V14.01,2013-06-28 13:33:00,
2013-06-28 09:34:00,73.5,66.6,29.60,NNW,347,5.0,7.0,79,0.00,,,0.00,0.00,VWS V14.01,2013-06-28 13:34:00,
2013-06-28 09:37:00,73.6,66.7,29.60,North,350,1.0,6.0,79,0.00,,,0.00,0.00,VWS V14.01,2013-06-28 13:37:00,
2013-06-28 09:38:00,73.6,66.7,29.60,NNW,334,6.0,8.0,79,0.00,,,0.00,0.00,VWS V14.01,2013-06-28 13:38:00,
2013-06-28 09:39:00,73.6,66.7,29.60,NNW,348,6.0,8.0,79,0.00,,,0.00,0.00,VWS V14.01,2013-06-28 13:39:00,
2013-06-28 09:42:00,73.5,66.2,29.60,NNW,347,2.0,3.0,78,0.00,,,0.00,0.00,VWS V14.01,2013-06-28 13:42:00,
2013-06-28 09:43:00,73.5,66.6,29.60,NE,37,1.0,4.0,79,0.00,,,0.00,0.00,VWS V14.01,2013-06-28 13:43:00,
2013-06-28 09:44:00,73.6,66.7,29.60,NNE,17,2.0,4.0,79,0.00,,,0.00,0.00,VWS V14.01,2013-06-28 13:44:00,
2013-06-28 09:47:00,73.8,66.5,29.60,NNW,346,3.0,7.0,78,0.00,,,0.00,0.00,VWS V14.01,2013-06-28 13:47:00,
2013-06-28 09:48:00,73.9,66.6,29.60,NNW,342,4.0,4.0,78,0.00,,,0.00,0.00,VWS V14.01,2013-06-28 13:48:00,
2013-06-28 09:49:00,73.9,66.6,29.60,NNW,346,3.0,6.0,78,0.00,,,0.00,0.00,VWS V14.01,2013-06-28 13:49:00,
2013-06-28 09:53:00,74.1,66.4,29.60,NNW,346,2.0,5.0,77,0.00,,,0.00,0.00,VWS V14.01,2013-06-28 13:53:00,
2013-06-28 09:54:00,74.1,66.8,29.60,NNW,344,0.0,1.0,78,0.00,,,0.00,0.00,VWS V14.01,2013-06-28 13:54:00,
2013-06-28 09:58:00,74.5,67.2,29.60,NNE,30,6.0,6.0,78,0.00,,,0.00,0.00,VWS V14.01,2013-06-28 13:58:00,
2013-06-28 09:59:00,74.5,66.8,29.60,North,351,2.0,6.0,77,0.00,,,0.00,0.00,VWS V14.01,2013-06-28 13:59:00,
2013-06-28 10:03:00,74.8,67.1,29.60,North,355,0.0,3.0,77,0.00,,,0.00,0.00,VWS V14.01,2013-06-28 14:03:00,
2013-06-28 10:04:00,74.9,67.2,29.60,North,5,4.0,5.0,77,0.00,,,0.00,0.00,VWS V14.01,2013-06-28 14:04:00,
2013-06-28 10:08:00,75.0,66.6,29.60,WNW,284,4.0,8.0,75,0.00,,,0.00,0.00,VWS V14.01,2013-06-28 14:08:00,
2013-06-28 10:09:00,75.0,66.9,29.60,North,5,3.0,7.0,76,0.00,,,0.00,0.00,VWS V14.01,2013-06-28 14:09:00,
2013-06-28 10:13:00,75.0,66.6,29.60,NNW,343,0.0,4.0,75,0.00,,,0.00,0.00,VWS V14.01,2013-06-28 14:13:00,
2013-06-28 10:14:00,75.0,66.6,29.60,NNW,348,0.0,6.0,75,0.00,,,0.00,0.00,VWS V14.01,2013-06-28 14:14:00,
2013-06-28 10:18:00,75.1,66.2,29.60,NNW,334,2.0,9.0,74,0.00,,,0.00,0.00,VWS V14.01,2013-06-28 14:18:00,
2013-06-28 10:19:00,75.1,66.6,29.60,NNW,332,2.0,3.0,75,0.00,,,0.00,0.00,VWS V14.01,2013-06-28 14:19:00,
2013-06-28 10:20:00,75.1,66.6,29.61,NNW,348,4.0,5.0,75,0.00,,,0.00,0.00,VWS V14.01,2013-06-28 14:20:00,
2013-06-28 10:23:00,75.2,66.7,29.60,South,177,1.0,5.0,75,0.00,,,0.00,0.00,VWS V14.01,2013-06-28 14:23:00,
2013-06-28 10:24:00,75.3,66.8,29.60,North,355,3.0,7.0,75,0.00,,,0.00,0.00,VWS V14.01,2013-06-28 14:24:00,
2013-06-28 10:28:00,75.5,66.6,29.61,NNW,347,5.0,8.0,74,0.00,,,0.00,0.00,VWS V14.01,2013-06-28 14:28:00,
2013-06-28 10:29:00,75.5,66.6,29.61,North,360,2.0,6.0,74,0.00,,,0.00,0.00,VWS V14.01,2013-06-28 14:29:00,
2013-06-28 10:30:00,75.6,66.7,29.61,NNW,348,3.0,7.0,74,0.00,,,0.00,0.00,VWS V14.01,2013-06-28 14:30:00,
2013-06-28 10:33:00,75.8,66.1,29.60,NE,39,4.0,9.0,72,0.00,,,0.00,0.00,VWS V14.01,2013-06-28 14:33:00,
2013-06-28 10:34:00,75.8,66.1,29.60,NE,37,2.0,7.0,72,0.00,,,0.00,0.00,VWS V14.01,2013-06-28 14:34:00,
2013-06-28 10:35:00,75.8,66.1,29.60,NE,51,3.0,7.0,72,0.00,,,0.00,0.00,VWS V14.01,2013-06-28 14:35:00,
2013-06-28 10:38:00,76.2,66.5,29.60,North,5,4.0,7.0,72,0.00,,,0.00,0.00,VWS V14.01,2013-06-28 14:38:00,
2013-06-28 10:39:00,76.2,66.1,29.60,NNE,20,2.0,8.0,71,0.00,,,0.00,0.00,VWS V14.01,2013-06-28 14:39:00,
2013-06-28 10:40:00,76.3,66.2,29.60,NE,48,2.0,10.0,71,0.00,,,0.00,0.00,VWS V14.01,2013-06-28 14:40:00,
2013-06-28 10:43:00,76.4,65.9,29.60,NE,34,0.0,4.0,70,0.00,,,0.00,0.00,VWS V14.01,2013-06-28 14:43:00,
2013-06-28 10:44:00,76.4,65.9,29.60,NNE,25,3.0,8.0,70,0.00,,,0.00,0.00,VWS V14.01,2013-06-28 14:44:00,
2013-06-28 10:45:00,76.4,65.9,29.60,NE,48,11.0,11.0,70,0.00,,,0.00,0.00,VWS V14.01,2013-06-28 14:45:00,
2013-06-28 10:48:00,76.6,66.9,29.60,North,360,5.0,5.0,72,0.00,,,0.00,0.00,VWS V14.01,2013-06-28 14:48:00,
2013-06-28 10:49:00,76.8,66.3,29.60,North,360,4.0,4.0,70,0.00,,,0.00,0.00,VWS V14.01,2013-06-28 14:49:00,
2013-06-28 10:50:00,76.8,66.3,29.60,NNW,339,4.0,4.0,70,0.00,,,0.00,0.00,VWS V14.01,2013-06-28 14:50:00,
2013-06-28 10:53:00,77.0,66.1,29.60,NNE,12,0.0,7.0,69,0.00,,,0.00,0.00,VWS V14.01,2013-06-28 14:53:00,
2013-06-28 10:54:00,77.0,66.1,29.60,NNW,344,4.0,5.0,69,0.00,,,0.00,0.00,VWS V14.01,2013-06-28 14:54:00,
2013-06-28 10:55:00,77.1,66.2,29.60,North,360,0.0,5.0,69,0.00,,,0.00,0.00,VWS V14.01,2013-06-28 14:55:00,
2013-06-28 10:58:00,77.3,66.3,29.60,North,360,1.0,1.0,69,0.00,,,0.00,0.00,VWS V14.01,2013-06-28 14:58:00,
2013-06-28 10:59:00,77.3,66.3,29.60,NNW,348,3.0,4.0,69,0.00,,,0.00,0.00,VWS V14.01,2013-06-28 14:59:00,
2013-06-28 11:00:00,77.4,66.4,29.60,NNW,346,1.0,6.0,69,0.00,,,0.00,0.00,VWS V14.01,2013-06-28 15:00:00,
2013-06-28 11:03:00,77.4,66.4,29.60,North,355,4.0,4.0,69,0.00,,,0.00,0.00,VWS V14.01,2013-06-28 15:03:00,
2013-06-28 11:04:00,77.4,66.0,29.60,North,5,1.0,8.0,68,0.00,,,0.00,0.00,VWS V14.01,2013-06-28 15:04:00,
2013-06-28 11:05:00,77.5,66.1,29.60,NNE,19,8.0,10.0,68,0.00,,,0.00,0.00,VWS V14.01,2013-06-28 15:05:00,
2013-06-28 11:08:00,77.7,65.9,29.60,North,360,3.0,3.0,67,0.00,,,0.00,0.00,VWS V14.01,2013-06-28 15:08:00,
2013-06-28 11:09:00,77.8,66.4,29.60,North,5,3.0,3.0,68,0.00,,,0.00,0.00,VWS V14.01,2013-06-28 15:09:00,
2013-06-28 11:10:00,77.9,66.1,29.60,North,5,2.0,6.0,67,0.00,,,0.00,0.00,VWS V14.01,2013-06-28 15:10:00,
2013-06-28 11:13:00,78.2,66.4,29.60,NNE,31,1.0,1.0,67,0.00,,,0.00,0.00,VWS V14.01,2013-06-28 15:13:00,
2013-06-28 11:14:00,78.3,66.0,29.60,North,9,4.0,4.0,66,0.00,,,0.00,0.00,VWS V14.01,2013-06-28 15:14:00,
2013-06-28 11:15:00,78.4,66.6,29.60,North,9,0.0,4.0,67,0.00,,,0.00,0.00,VWS V14.01,2013-06-28 15:15:00,
2013-06-28 11:18:00,78.7,66.0,29.60,North,355,2.0,2.0,65,0.00,,,0.00,0.00,VWS V14.01,2013-06-28 15:18:00,
2013-06-28 11:19:00,78.7,66.0,29.60,NE,35,4.0,7.0,65,0.00,,,0.00,0.00,VWS V14.01,2013-06-28 15:19:00,
2013-06-28 11:20:00,78.8,66.5,29.60,NE,46,4.0,7.0,66,0.00,,,0.00,0.00,VWS V14.01,2013-06-28 15:20:00,
2013-06-28 11:21:00,78.8,66.5,29.60,NE,39,1.0,5.0,66,0.00,,,0.00,0.00,VWS V14.01,2013-06-28 15:21:00,
2013-06-28 11:23:00,78.9,66.2,29.60,NNE,33,2.0,4.0,65,0.00,,,0.00,0.00,VWS V14.01,2013-06-28 15:23:00,
2013-06-28 11:24:00,79.0,66.2,29.60,North,9,2.0,3.0,65,0.00,,,0.00,0.00,VWS V14.01,2013-06-28 15:24:00,
2013-06-28 11:25:00,79.0,66.2,29.60,NNE,23,2.0,4.0,65,0.00,,,0.00,0.00,VWS V14.01,2013-06-28 15:25:00,
2013-06-28 11:26:00,79.1,66.3,29.60,NNE,21,3.0,3.0,65,0.00,,,0.00,0.00,VWS V14.01,2013-06-28 15:26:00,
2013-06-28 11:28:00,79.2,66.0,29.60,ENE,60,4.0,4.0,64,0.00,,,0.00,0.00,VWS V14.01,2013-06-28 15:28:00,
2013-06-28 11:29:00,79.2,66.4,29.60,NNE,22,0.0,2.0,65,0.00,,,0.00,0.00,VWS V14.01,2013-06-28 15:29:00,
2013-06-28 11:30:00,79.2,66.4,29.60,NNE,22,1.0,2.0,65,0.00,,,0.00,0.00,VWS V14.01,2013-06-28 15:30:00,
2013-06-28 11:31:00,79.3,66.5,29.60,NNE,22,2.0,3.0,65,0.00,,,0.00,0.00,VWS V14.01,2013-06-28 15:31:00,
2013-06-28 11:33:00,79.6,65.4,29.60,NNW,343,6.0,6.0,62,0.00,,,0.00,0.00,VWS V14.01,2013-06-28 15:33:00,
2013-06-28 11:34:00,79.6,65.0,29.60,NNE,19,6.0,7.0,61,0.00,,,0.00,0.00,VWS V14.01,2013-06-28 15:34:00,
2013-06-28 11:35:00,79.6,65.0,29.60,NNE,28,5.0,5.0,61,0.00,,,0.00,0.00,VWS V14.01,2013-06-28 15:35:00,
2013-06-28 11:36:00,79.6,65.4,29.60,NNE,23,2.0,5.0,62,0.00,,,0.00,0.00,VWS V14.01,2013-06-28 15:36:00,
2013-06-28 11:38:00,79.5,64.9,29.60,North,5,0.0,9.0,61,0.00,,,0.00,0.00,VWS V14.01,2013-06-28 15:38:00,
2013-06-28 11:39:00,79.4,65.3,29.60,NE,52,1.0,8.0,62,0.00,,,0.00,0.00,VWS V14.01,2013-06-28 15:39:00,
2013-06-28 11:40:00,79.4,65.7,29.60,NW,317,3.0,3.0,63,0.00,,,0.00,0.00,VWS V14.01,2013-06-28 15:40:00,
2013-06-28 11:41:00,79.3,65.6,29.60,NE,42,3.0,4.0,63,0.00,,,0.00,0.00,VWS V14.01,2013-06-28 15:41:00,
2013-06-28 11:44:00,79.4,65.7,29.60,NNW,342,1.0,7.0,63,0.00,,,0.00,0.00,VWS V14.01,2013-06-28 15:44:00,
2013-06-28 11:45:00,79.5,64.9,29.60,North,360,3.0,4.0,61,0.00,,,0.00,0.00,VWS V14.01,2013-06-28 15:45:00,
2013-06-28 11:46:00,79.5,65.3,29.60,ENE,71,7.0,7.0,62,0.00,,,0.00,0.00,VWS V14.01,2013-06-28 15:46:00,
2013-06-28 11:49:00,79.5,65.3,29.60,North,9,4.0,7.0,62,0.00,,,0.00,0.00,VWS V14.01,2013-06-28 15:49:00,
2013-06-28 11:50:00,79.4,65.3,29.60,North,360,2.0,3.0,62,0.00,,,0.00,0.00,VWS V14.01,2013-06-28 15:50:00,
2013-06-28 11:51:00,79.5,65.3,29.60,NNE,12,5.0,6.0,62,0.00,,,0.00,0.00,VWS V14.01,2013-06-28 15:51:00,
2013-06-28 11:54:00,79.4,64.8,29.60,North,355,4.0,7.0,61,0.00,,,0.00,0.00,VWS V14.01,2013-06-28 15:54:00,
2013-06-28 11:56:00,79.5,65.8,29.60,North,360,7.0,8.0,63,0.00,,,0.00,0.00,VWS V14.01,2013-06-28 15:56:00,
2013-06-28 11:59:00,79.7,65.1,29.60,NNW,347,4.0,5.0,61,0.00,,,0.00,0.00,VWS V14.01,2013-06-28 15:59:00,
2013-06-28 12:01:00,79.8,65.2,29.60,North,355,8.0,10.0,61,0.00,,,0.00,0.00,VWS V14.01,2013-06-28 16:01:00,
2013-06-28 12:04:00,79.6,64.0,29.60,NE,54,3.0,7.0,59,0.00,,,0.00,0.00,VWS V14.01,2013-06-28 16:04:00,
2013-06-28 12:05:00,79.6,65.0,29.60,NNE,31,6.0,9.0,61,0.00,,,0.00,0.00,VWS V14.01,2013-06-28 16:05:00,
2013-06-28 12:06:00,79.6,64.5,29.60,NNE,13,3.0,5.0,60,0.00,,,0.00,0.00,VWS V14.01,2013-06-28 16:06:00,
2013-06-28 12:09:00,79.7,65.1,29.60,NNE,16,3.0,6.0,61,0.00,,,0.00,0.00,VWS V14.01,2013-06-28 16:09:00,
2013-06-28 12:10:00,79.8,65.6,29.60,NNE,30,8.0,8.0,62,0.00,,,0.00,0.00,VWS V14.01,2013-06-28 16:10:00,
2013-06-28 12:11:00,79.9,65.3,29.60,North,5,4.0,6.0,61,0.00,,,0.00,0.00,VWS V14.01,2013-06-28 16:11:00,
2013-06-28 12:14:00,80.1,65.0,29.60,North,5,7.0,9.0,60,0.00,,,0.00,0.00,VWS V14.01,2013-06-28 16:14:00,
2013-06-28 12:15:00,80.2,65.1,29.60,NE,36,2.0,9.0,60,0.00,,,0.00,0.00,VWS V14.01,2013-06-28 16:15:00,
2013-06-28 12:16:00,80.2,64.6,29.60,NW,319,6.0,9.0,59,0.00,,,0.00,0.00,VWS V14.01,2013-06-28 16:16:00,
2013-06-28 12:17:00,80.2,64.1,29.60,North,5,2.0,8.0,58,0.00,,,0.00,0.00,VWS V14.01,2013-06-28 16:17:00,
2013-06-28 12:19:00,80.3,65.2,29.60,ENE,57,7.0,12.0,60,0.00,,,0.00,0.00,VWS V14.01,2013-06-28 16:19:00,
2013-06-28 12:20:00,80.2,64.6,29.60,NE,52,1.0,12.0,59,0.00,,,0.00,0.00,VWS V14.01,2013-06-28 16:20:00,
2013-06-28 12:21:00,80.3,65.2,29.60,NE,44,2.0,4.0,60,0.00,,,0.00,0.00,VWS V14.01,2013-06-28 16:21:00,
2013-06-28 12:24:00,80.5,64.4,29.60,WNW,296,5.0,8.0,58,0.00,,,0.00,0.00,VWS V14.01,2013-06-28 16:24:00,
2013-06-28 12:25:00,80.6,64.5,29.60,North,355,2.0,8.0,58,0.00,,,0.00,0.00,VWS V14.01,2013-06-28 16:25:00,
2013-06-28 12:26:00,80.6,64.5,29.60,NNW,337,3.0,3.0,58,0.00,,,0.00,0.00,VWS V14.01,2013-06-28 16:26:00,
2013-06-28 12:27:00,80.7,65.1,29.60,North,11,1.0,4.0,59,0.00,,,0.00,0.00,VWS V14.01,2013-06-28 16:27:00,
2013-06-28 12:29:00,80.9,64.8,29.60,NE,36,4.0,8.0,58,0.00,,,0.00,0.00,VWS V14.01,2013-06-28 16:29:00,
2013-06-28 12:30:00,81.0,64.3,29.60,NNE,32,7.0,10.0,57,0.00,,,0.00,0.00,VWS V14.01,2013-06-28 16:30:00,
2013-06-28 12:31:00,80.9,64.8,29.60,NNE,16,1.0,2.0,58,0.00,,,0.00,0.00,VWS V14.01,2013-06-28 16:31:00,
2013-06-28 12:32:00,80.9,65.2,29.60,North,10,2.0,4.0,59,0.00,,,0.00,0.00,VWS V14.01,2013-06-28 16:32:00,
2013-06-28 12:34:00,81.1,64.9,29.60,NNE,12,1.0,7.0,58,0.00,,,0.00,0.00,VWS V14.01,2013-06-28 16:34:00,
2013-06-28 12:35:00,81.1,64.4,29.60,NNE,14,3.0,7.0,57,0.00,,,0.00,0.00,VWS V14.01,2013-06-28 16:35:00,
2013-06-28 12:36:00,81.1,63.9,29.60,NNW,339,3.0,5.0,56,0.00,,,0.00,0.00,VWS V14.01,2013-06-28 16:36:00,
2013-06-28 12:39:00,81.1,63.9,29.60,North,360,1.0,5.0,56,0.00,,,0.00,0.00,VWS V14.01,2013-06-28 16:39:00,
2013-06-28 12:40:00,81.1,63.9,29.60,North,360,3.0,5.0,56,0.00,,,0.00,0.00,VWS V14.01,2013-06-28 16:40:00,
2013-06-28 12:41:00,81.1,63.9,29.60,NE,36,3.0,6.0,56,0.00,,,0.00,0.00,VWS V14.01,2013-06-28 16:41:00,
2013-06-28 12:44:00,81.3,64.6,29.60,NNE,26,3.0,6.0,57,0.00,,,0.00,0.00,VWS V14.01,2013-06-28 16:44:00,
2013-06-28 12:45:00,81.3,64.6,29.60,NE,49,6.0,9.0,57,0.00,,,0.00,0.00,VWS V14.01,2013-06-28 16:45:00,
2013-06-28 12:46:00,81.4,65.2,29.60,NE,46,5.0,10.0,58,0.00,,,0.00,0.00,VWS V14.01,2013-06-28 16:46:00,
2013-06-28 12:47:00,81.4,65.2,29.60,NNW,334,6.0,10.0,58,0.00,,,0.00,0.00,VWS V14.01,2013-06-28 16:47:00,
2013-06-28 12:50:00,81.4,65.2,29.60,NNE,26,2.0,3.0,58,0.00,,,0.00,0.00,VWS V14.01,2013-06-28 16:50:00,
2013-06-28 12:51:00,81.4,65.2,29.60,East,88,1.0,7.0,58,0.00,,,0.00,0.00,VWS V14.01,2013-06-28 16:51:00,
2013-06-28 12:52:00,81.6,64.4,29.59,NE,44,1.0,5.0,56,0.00,,,0.00,0.00,VWS V14.01,2013-06-28 16:52:00,
2013-06-28 12:54:00,81.9,65.7,29.60,North,360,6.0,6.0,58,0.00,,,0.00,0.00,VWS V14.01,2013-06-28 16:54:00,
2013-06-28 12:56:00,81.9,63.6,29.59,ENE,67,4.0,10.0,54,0.00,,,0.00,0.00,VWS V14.01,2013-06-28 16:56:00,
2013-06-28 12:57:00,81.8,64.1,29.60,ENE,73,4.0,9.0,55,0.00,,,0.00,0.00,VWS V14.01,2013-06-28 16:57:00,
2013-06-28 12:59:00,81.8,64.6,29.59,NE,53,6.0,6.0,56,0.00,,,0.00,0.00,VWS V14.01,2013-06-28 16:59:00,
2013-06-28 13:01:00,81.9,64.2,29.59,ENE,69,2.0,9.0,55,0.00,,,0.00,0.00,VWS V14.01,2013-06-28 17:01:00,
2013-06-28 13:02:00,81.9,64.7,29.59,NE,44,0.0,2.0,56,0.00,,,0.00,0.00,VWS V14.01,2013-06-28 17:02:00,
2013-06-28 13:05:00,82.1,65.4,29.59,NNE,27,6.0,9.0,57,0.00,,,0.00,0.00,VWS V14.01,2013-06-28 17:05:00,
2013-06-28 13:06:00,82.2,64.4,29.59,NE,45,4.0,9.0,55,0.00,,,0.00,0.00,VWS V14.01,2013-06-28 17:06:00,
2013-06-28 13:07:00,82.2,65.0,29.59,North,355,3.0,5.0,56,0.00,,,0.00,0.00,VWS V14.01,2013-06-28 17:07:00,
2013-06-28 13:10:00,82.2,65.5,29.59,North,350,4.0,5.0,57,0.00,,,0.00,0.00,VWS V14.01,2013-06-28 17:10:00,
2013-06-28 13:11:00,82.2,65.0,29.59,NNE,15,2.0,4.0,56,0.00,,,0.00,0.00,VWS V14.01,2013-06-28 17:11:00,
2013-06-28 13:12:00,82.2,65.0,29.59,NNE,24,4.0,6.0,56,0.00,,,0.00,0.00,VWS V14.01,2013-06-28 17:12:00,
2013-06-28 13:15:00,82.0,64.8,29.59,NNW,346,0.0,5.0,56,0.00,,,0.00,0.00,VWS V14.01,2013-06-28 17:15:00,
2013-06-28 13:16:00,81.9,65.2,29.59,North,350,3.0,4.0,57,0.00,,,0.00,0.00,VWS V14.01,2013-06-28 17:16:00,
2013-06-28 13:17:00,81.9,64.7,29.58,North,351,1.0,3.0,56,0.00,,,0.00,0.00,VWS V14.01,2013-06-28 17:17:00,
2013-06-28 13:20:00,82.0,65.3,29.58,North,355,1.0,5.0,57,0.00,,,0.00,0.00,VWS V14.01,2013-06-28 17:20:00,
2013-06-28 13:21:00,82.0,65.8,29.58,NNE,30,2.0,8.0,58,0.00,,,0.00,0.00,VWS V14.01,2013-06-28 17:21:00,
2013-06-28 13:22:00,82.0,65.3,29.58,NE,38,1.0,4.0,57,0.00,,,0.00,0.00,VWS V14.01,2013-06-28 17:22:00,
2013-06-28 13:25:00,81.9,63.6,29.58,NNW,348,0.0,7.0,54,0.00,,,0.00,0.00,VWS V14.01,2013-06-28 17:25:00,
2013-06-28 13:26:00,81.8,64.1,29.58,NW,325,3.0,9.0,55,0.00,,,0.00,0.00,VWS V14.01,2013-06-28 17:26:00,
2013-06-28 13:27:00,81.8,64.6,29.58,North,351,8.0,11.0,56,0.00,,,0.00,0.00,VWS V14.01,2013-06-28 17:27:00,
2013-06-28 13:30:00,81.8,65.1,29.57,NNW,348,6.0,6.0,57,0.00,,,0.00,0.00,VWS V14.01,2013-06-28 17:30:00,
2013-06-28 13:31:00,81.8,64.6,29.58,NNW,347,2.0,8.0,56,0.00,,,0.00,0.00,VWS V14.01,2013-06-28 17:31:00,
2013-06-28 13:32:00,81.9,64.2,29.58,NNW,344,2.0,4.0,55,0.00,,,0.00,0.00,VWS V14.01,2013-06-28 17:32:00,
2013-06-28 13:35:00,82.0,64.3,29.57,WNW,296,0.0,0.0,55,0.00,,,0.00,0.00,VWS V14.01,2013-06-28 17:35:00,
2013-06-28 13:36:00,82.0,64.8,29.57,WNW,296,1.0,1.0,56,0.00,,,0.00,0.00,VWS V14.01,2013-06-28 17:36:00,
2013-06-28 13:37:00,81.9,64.7,29.57,WNW,300,0.0,4.0,56,0.00,,,0.00,0.00,VWS V14.01,2013-06-28 17:37:00,
2013-06-28 13:41:00,82.2,65.0,29.57,NE,45,3.0,3.0,56,0.00,,,0.00,0.00,VWS V14.01,2013-06-28 17:41:00,
2013-06-28 13:42:00,82.3,62.9,29.57,ENE,73,1.0,5.0,52,0.00,,,0.00,0.00,VWS V14.01,2013-06-28 17:42:00,
2013-06-28 13:46:00,82.6,64.3,29.56,NNE,33,0.0,2.0,54,0.00,,,0.00,0.00,VWS V14.01,2013-06-28 17:46:00,
2013-06-28 13:47:00,82.6,63.8,29.56,NNW,345,3.0,4.0,53,0.00,,,0.00,0.00,VWS V14.01,2013-06-28 17:47:00,
2013-06-28 13:51:00,82.2,63.4,29.56,NNW,342,0.0,2.0,53,0.00,,,0.00,0.00,VWS V14.01,2013-06-28 17:51:00,
2013-06-28 13:52:00,82.0,63.2,29.56,NE,39,3.0,4.0,53,0.00,,,0.00,0.00,VWS V14.01,2013-06-28 17:52:00,
2013-06-28 13:56:00,81.3,63.1,29.57,NNW,336,0.0,4.0,54,0.00,,,0.00,0.00,VWS V14.01,2013-06-28 17:56:00,
2013-06-28 13:57:00,81.2,63.5,29.57,NNW,336,2.0,3.0,55,0.00,,,0.00,0.00,VWS V14.01,2013-06-28 17:57:00,
2013-06-28 14:01:00,81.0,64.3,29.56,North,355,9.0,10.0,57,0.00,,,0.00,0.00,VWS V14.01,2013-06-28 18:01:00,
2013-06-28 14:02:00,80.9,63.8,29.56,NNW,343,1.0,1.0,56,0.00,,,0.00,0.00,VWS V14.01,2013-06-28 18:02:00,
2013-06-28 14:03:00,80.8,63.7,29.56,NNW,347,1.0,6.0,56,0.00,,,0.00,0.00,VWS V14.01,2013-06-28 18:03:00,
2013-06-28 14:06:00,80.5,63.9,29.56,North,350,1.0,7.0,57,0.00,,,0.00,0.00,VWS V14.01,2013-06-28 18:06:00,
2013-06-28 14:07:00,80.4,64.3,29.56,NNW,342,10.0,10.0,58,0.00,,,0.00,0.00,VWS V14.01,2013-06-28 18:07:00,
2013-06-28 14:08:00,80.3,64.2,29.56,NNE,15,3.0,10.0,58,0.00,,,0.00,0.00,VWS V14.01,2013-06-28 18:08:00,
2013-06-28 14:11:00,79.8,64.7,29.57,NE,34,6.0,6.0,60,0.00,,,0.00,0.00,VWS V14.01,2013-06-28 18:11:00,
2013-06-28 14:12:00,79.4,66.2,29.57,NE,38,4.0,5.0,64,0.00,,,0.00,0.00,VWS V14.01,2013-06-28 18:12:00,
2013-06-28 14:13:00,79.3,66.1,29.57,NNE,32,2.0,5.0,64,0.00,,,0.00,0.00,VWS V14.01,2013-06-28 18:13:00,
2013-06-28 14:16:00,76.9,66.4,29.59,North,355,11.0,14.0,70,0.00,,,0.00,0.00,VWS V14.01,2013-06-28 18:16:00,
2013-06-28 14:17:00,75.9,66.2,29.60,NW,307,5.0,8.0,72,0.00,,,0.00,0.00,VWS V14.01,2013-06-28 18:17:00,
2013-06-28 14:18:00,75.4,65.3,29.60,NW,308,4.0,11.0,71,0.00,,,0.00,0.00,VWS V14.01,2013-06-28 18:18:00,
2013-06-28 14:21:00,72.5,63.8,29.58,North,5,4.0,5.0,74,0.00,,,0.00,0.00,VWS V14.01,2013-06-28 18:21:00,
2013-06-28 14:22:00,71.8,62.7,29.59,NNW,336,2.0,2.0,73,0.00,,,0.00,0.00,VWS V14.01,2013-06-28 18:22:00,
2013-06-28 14:23:00,71.6,62.9,29.59,NNW,336,0.0,3.0,74,0.00,,,0.00,0.00,VWS V14.01,2013-06-28 18:23:00,
2013-06-28 14:26:00,70.4,62.1,29.58,NW,313,0.0,3.0,75,0.00,,,0.00,0.00,VWS V14.01,2013-06-28 18:26:00,
2013-06-28 14:27:00,70.0,61.0,29.58,NW,311,1.0,1.0,73,0.00,,,0.00,0.00,VWS V14.01,2013-06-28 18:27:00,
2013-06-28 14:28:00,70.0,60.2,29.58,NW,311,1.0,1.0,71,0.00,,,0.00,0.00,VWS V14.01,2013-06-28 18:28:00,
2013-06-28 14:31:00,69.1,61.2,29.59,NW,311,0.0,0.0,76,0.00,,,0.00,0.00,VWS V14.01,2013-06-28 18:31:00,
2013-06-28 14:32:00,68.8,60.9,29.59,NW,311,0.0,0.0,76,0.00,,,0.00,0.00,VWS V14.01,2013-06-28 18:32:00,
2013-06-28 14:33:00,68.8,60.9,29.59,NW,311,0.0,0.0,76,0.00,,,0.00,0.00,VWS V14.01,2013-06-28 18:33:00,
2013-06-28 14:36:00,68.1,62.1,29.59,NW,311,0.0,0.0,81,0.00,,,0.00,0.00,VWS V14.01,2013-06-28 18:36:00,
2013-06-28 14:38:00,67.9,62.2,29.60,NW,311,1.0,1.0,82,0.00,,,0.00,0.00,VWS V14.01,2013-06-28 18:38:00,
2013-06-28 14:41:00,67.4,62.1,29.59,NW,311,0.0,0.0,83,0.00,,,0.00,0.00,VWS V14.01,2013-06-28 18:41:00,
2013-06-28 14:43:00,67.2,61.9,29.60,NW,311,0.0,1.0,83,0.00,,,0.00,0.00,VWS V14.01,2013-06-28 18:43:00,
2013-06-28 14:47:00,66.8,62.5,29.60,WNW,302,0.0,4.0,86,0.00,,,0.00,0.00,VWS V14.01,2013-06-28 18:47:00,
2013-06-28 14:48:00,66.7,62.4,29.60,WNW,302,3.0,3.0,86,0.00,,,0.00,0.00,VWS V14.01,2013-06-28 18:48:00,
2013-06-28 14:52:00,66.5,62.5,29.59,WNW,285,0.0,1.0,87,0.00,,,0.00,0.00,VWS V14.01,2013-06-28 18:52:00,
2013-06-28 14:53:00,66.5,62.5,29.59,WNW,285,0.0,0.0,87,0.00,,,0.00,0.00,VWS V14.01,2013-06-28 18:53:00,
2013-06-28 14:57:00,66.4,62.7,29.59,WNW,285,0.0,0.0,88,0.00,,,0.00,0.00,VWS V14.01,2013-06-28 18:57:00,
2013-06-28 14:58:00,66.4,63.1,29.59,WNW,285,0.0,1.0,89,0.00,,,0.00,0.00,VWS V14.01,2013-06-28 18:58:00,
2013-06-28 14:59:00,66.4,63.1,29.59,WNW,285,0.0,3.0,89,0.00,,,0.00,0.00,VWS V14.01,2013-06-28 18:59:00,
2013-06-28 15:02:00,66.7,63.7,29.59,WNW,285,0.0,0.0,90,0.00,,,0.00,0.00,VWS V14.01,2013-06-28 19:02:00,
2013-06-28 15:03:00,66.8,63.8,29.58,WNW,285,0.0,3.0,90,0.00,,,0.00,0.00,VWS V14.01,2013-06-28 19:03:00,
2013-06-28 15:04:00,66.8,63.8,29.59,WNW,285,0.0,0.0,90,0.00,,,0.00,0.00,VWS V14.01,2013-06-28 19:04:00,
2013-06-28 15:07:00,67.1,64.1,29.58,WNW,285,0.0,1.0,90,0.00,,,0.00,0.00,VWS V14.01,2013-06-28 19:07:00,
2013-06-28 15:08:00,67.1,63.8,29.58,WNW,285,0.0,1.0,89,0.00,,,0.00,0.00,VWS V14.01,2013-06-28 19:08:00,
2013-06-28 15:09:00,67.2,63.8,29.58,WNW,285,0.0,1.0,89,0.00,,,0.00,0.00,VWS V14.01,2013-06-28 19:09:00,
2013-06-28 15:12:00,67.4,63.7,29.58,WNW,285,0.0,0.0,88,0.00,,,0.00,0.00,VWS V14.01,2013-06-28 19:12:00,
2013-06-28 15:13:00,67.5,63.5,29.58,WNW,285,0.0,1.0,87,0.00,,,0.00,0.00,VWS V14.01,2013-06-28 19:13:00,
2013-06-28 15:14:00,67.6,62.9,29.58,WNW,285,0.0,1.0,85,0.00,,,0.00,0.00,VWS V14.01,2013-06-28 19:14:00,
2013-06-28 15:17:00,67.9,63.9,29.58,WNW,285,1.0,1.0,87,0.00,,,0.00,0.00,VWS V14.01,2013-06-28 19:17:00,
2013-06-28 15:18:00,67.9,63.9,29.58,WNW,282,3.0,5.0,87,0.00,,,0.00,0.00,VWS V14.01,2013-06-28 19:18:00,
2013-06-28 15:19:00,68.0,63.7,29.58,WNW,282,1.0,1.0,86,0.00,,,0.00,0.00,VWS V14.01,2013-06-28 19:19:00,
2013-06-28 15:22:00,68.2,64.2,29.58,WNW,282,1.0,2.0,87,0.00,,,0.00,0.00,VWS V14.01,2013-06-28 19:22:00,
2013-06-28 15:23:00,68.3,64.6,29.58,WNW,282,0.0,2.0,88,0.00,,,0.00,0.00,VWS V14.01,2013-06-28 19:23:00,
2013-06-28 15:24:00,68.3,64.6,29.58,WNW,282,1.0,4.0,88,0.00,,,0.00,0.00,VWS V14.01,2013-06-28 19:24:00,
2013-06-28 15:27:00,68.0,63.7,29.58,WSW,254,2.0,3.0,86,0.00,,,0.00,0.00,VWS V14.01,2013-06-28 19:27:00,
2013-06-28 15:28:00,68.0,63.7,29.58,WSW,255,1.0,1.0,86,0.00,,,0.00,0.00,VWS V14.01,2013-06-28 19:28:00,
2013-06-28 15:29:00,68.0,64.0,29.58,WSW,255,0.0,1.0,87,0.00,,,0.00,0.00,VWS V14.01,2013-06-28 19:29:00,
2013-06-28 15:30:00,68.0,63.7,29.58,WSW,257,2.0,3.0,86,0.00,,,0.00,0.00,VWS V14.01,2013-06-28 19:30:00,
2013-06-28 15:33:00,68.1,63.4,29.58,WSW,257,1.0,4.0,85,0.00,,,0.00,0.00,VWS V14.01,2013-06-28 19:33:00,
2013-06-28 15:34:00,68.2,63.5,29.58,WSW,257,0.0,3.0,85,0.00,,,0.00,0.00,VWS V14.01,2013-06-28 19:34:00,
2013-06-28 15:35:00,68.5,63.8,29.58,WSW,257,0.0,0.0,85,0.00,,,0.00,0.00,VWS V14.01,2013-06-28 19:35:00,
2013-06-28 15:38:00,68.9,63.2,29.57,WSW,257,0.0,1.0,82,0.00,,,0.00,0.00,VWS V14.01,2013-06-28 19:38:00,
2013-06-28 15:39:00,69.0,63.3,29.57,WSW,257,0.0,0.0,82,0.00,,,0.00,0.00,VWS V14.01,2013-06-28 19:39:00,
2013-06-28 15:40:00,69.2,63.1,29.57,WSW,257,0.0,2.0,81,0.00,,,0.00,0.00,VWS V14.01,2013-06-28 19:40:00,
2013-06-28 15:43:00,69.5,63.1,29.57,WSW,257,0.0,1.0,80,0.00,,,0.00,0.00,VWS V14.01,2013-06-28 19:43:00,
2013-06-28 15:44:00,69.5,63.1,29.57,WSW,257,1.0,1.0,80,0.00,,,0.00,0.00,VWS V14.01,2013-06-28 19:44:00,
2013-06-28 15:45:00,69.8,63.4,29.57,WSW,257,0.0,0.0,80,0.00,,,0.00,0.00,VWS V14.01,2013-06-28 19:45:00,
2013-06-28 15:48:00,70.3,63.8,29.57,WSW,257,0.0,2.0,80,0.00,,,0.00,0.00,VWS V14.01,2013-06-28 19:48:00,
2013-06-28 15:49:00,70.4,63.6,29.57,WSW,257,1.0,1.0,79,0.00,,,0.00,0.00,VWS V14.01,2013-06-28 19:49:00,
2013-06-28 15:50:00,70.8,63.6,29.57,WSW,257,0.0,0.0,78,0.00,,,0.00,0.00,VWS V14.01,2013-06-28 19:50:00,
2013-06-28 15:53:00,71.3,64.5,29.57,WSW,257,0.0,3.0,79,0.00,,,0.00,0.00,VWS V14.01,2013-06-28 19:53:00,
2013-06-28 15:54:00,71.6,64.4,29.57,WSW,255,0.0,1.0,78,0.00,,,0.00,0.00,VWS V14.01,2013-06-28 19:54:00,
2013-06-28 15:56:00,71.9,64.3,29.57,WSW,255,0.0,0.0,77,0.00,,,0.00,0.00,VWS V14.01,2013-06-28 19:56:00,
2013-06-28 15:58:00,72.5,64.5,29.57,WSW,256,0.0,1.0,76,0.00,,,0.00,0.00,VWS V14.01,2013-06-28 19:58:00,
2013-06-28 15:59:00,72.6,63.8,29.57,West,261,1.0,5.0,74,0.00,,,0.00,0.00,VWS V14.01,2013-06-28 19:59:00,
2013-06-28 16:01:00,72.6,63.1,29.56,West,261,0.0,1.0,72,0.00,,,0.00,0.00,VWS V14.01,2013-06-28 20:01:00,
2013-06-28 16:03:00,72.8,64.4,29.56,West,261,1.0,2.0,75,0.00,,,0.00,0.00,VWS V14.01,2013-06-28 20:03:00,
2013-06-28 16:04:00,72.9,64.5,29.56,West,261,1.0,2.0,75,0.00,,,0.00,0.00,VWS V14.01,2013-06-28 20:04:00,
2013-06-28 16:06:00,73.1,63.9,29.56,West,261,1.0,4.0,73,0.00,,,0.00,0.00,VWS V14.01,2013-06-28 20:06:00,
2013-06-28 16:09:00,73.2,64.4,29.56,West,260,2.0,4.0,74,0.00,,,0.00,0.00,VWS V14.01,2013-06-28 20:09:00,
2013-06-28 16:11:00,73.4,63.8,29.56,West,260,3.0,3.0,72,0.00,,,0.00,0.00,VWS V14.01,2013-06-28 20:11:00,
2013-06-28 16:14:00,73.4,65.4,29.56,West,259,0.0,0.0,76,0.00,,,0.00,0.00,VWS V14.01,2013-06-28 20:14:00,
2013-06-28 16:16:00,73.4,65.0,29.55,West,259,0.0,2.0,75,0.00,,,0.00,0.00,VWS V14.01,2013-06-28 20:16:00,
2013-06-28 16:19:00,73.3,64.9,29.56,West,259,1.0,3.0,75,0.00,,,0.00,0.00,VWS V14.01,2013-06-28 20:19:00,
2013-06-28 16:21:00,73.2,64.8,29.55,West,259,0.0,2.0,75,0.00,,,0.00,0.00,VWS V14.01,2013-06-28 20:21:00,
2013-06-28 16:24:00,73.0,64.6,29.55,West,259,0.0,1.0,75,0.00,,,0.00,0.00,VWS V14.01,2013-06-28 20:24:00,
2013-06-28 16:25:00,73.0,65.0,29.55,West,259,0.0,2.0,76,0.00,,,0.00,0.00,VWS V14.01,2013-06-28 20:25:00,
2013-06-28 16:26:00,72.9,64.9,29.55,West,259,4.0,4.0,76,0.00,,,0.00,0.00,VWS V14.01,2013-06-28 20:26:00,
2013-06-28 16:29:00,72.8,65.2,29.55,West,259,1.0,2.0,77,0.00,,,0.00,0.00,VWS V14.01,2013-06-28 20:29:00,
2013-06-28 16:30:00,72.8,65.2,29.55,West,259,2.0,2.0,77,0.00,,,0.00,0.00,VWS V14.01,2013-06-28 20:30:00,
2013-06-28 16:31:00,72.8,65.2,29.55,West,260,4.0,5.0,77,0.00,,,0.00,0.00,VWS V14.01,2013-06-28 20:31:00,
2013-06-28 16:34:00,72.7,65.4,29.55,West,269,2.0,4.0,78,0.00,,,0.00,0.00,VWS V14.01,2013-06-28 20:34:00,
2013-06-28 16:35:00,72.6,65.3,29.55,West,269,3.0,3.0,78,0.00,,,0.00,0.00,VWS V14.01,2013-06-28 20:35:00,
2013-06-28 16:36:00,72.6,65.3,29.55,West,269,5.0,5.0,78,0.00,,,0.00,0.00,VWS V14.01,2013-06-28 20:36:00,
2013-06-28 16:39:00,72.4,65.5,29.55,West,269,0.0,1.0,79,0.00,,,0.00,0.00,VWS V14.01,2013-06-28 20:39:00,
2013-06-28 16:40:00,72.4,65.5,29.55,West,274,4.0,6.0,79,0.00,,,0.00,0.00,VWS V14.01,2013-06-28 20:40:00,
2013-06-28 16:41:00,72.5,65.3,29.55,West,271,4.0,5.0,78,0.00,,,0.00,0.00,VWS V14.01,2013-06-28 20:41:00,
2013-06-28 16:44:00,72.8,65.9,29.55,West,267,3.0,4.0,79,0.00,,,0.00,0.00,VWS V14.01,2013-06-28 20:44:00,
2013-06-28 16:45:00,72.8,65.9,29.55,West,267,1.0,4.0,79,0.00,,,0.00,0.00,VWS V14.01,2013-06-28 20:45:00,
2013-06-28 16:46:00,73.0,65.4,29.55,West,273,0.0,1.0,77,0.00,,,0.00,0.00,VWS V14.01,2013-06-28 20:46:00,
2013-06-28 16:49:00,73.1,65.8,29.55,West,276,4.0,5.0,78,0.00,,,0.00,0.00,VWS V14.01,2013-06-28 20:49:00,
2013-06-28 16:50:00,73.1,65.5,29.55,West,275,2.0,5.0,77,0.00,,,0.00,0.00,VWS V14.01,2013-06-28 20:50:00,
2013-06-28 16:51:00,73.2,65.9,29.55,West,275,0.0,3.0,78,0.00,,,0.00,0.00,VWS V14.01,2013-06-28 20:51:00,
2013-06-28 16:54:00,73.3,66.0,29.55,West,275,0.0,2.0,78,0.00,,,0.00,0.00,VWS V14.01,2013-06-28 20:54:00,
2013-06-28 16:55:00,73.3,66.0,29.55,West,275,1.0,2.0,78,0.00,,,0.00,0.00,VWS V14.01,2013-06-28 20:55:00,
2013-06-28 16:56:00,73.4,66.1,29.55,West,275,0.0,1.0,78,0.00,,,0.00,0.00,VWS V14.01,2013-06-28 20:56:00,
2013-06-28 16:59:00,73.4,65.8,29.55,WSW,258,0.0,3.0,77,0.00,,,0.00,0.00,VWS V14.01,2013-06-28 20:59:00,
2013-06-28 17:00:00,73.5,65.9,29.55,WSW,258,0.0,3.0,77,0.00,,,0.00,0.00,VWS V14.01,2013-06-28 21:00:00,
2013-06-28 17:01:00,73.5,66.2,29.55,WSW,258,0.0,2.0,78,0.00,,,0.00,0.00,VWS V14.01,2013-06-28 21:01:00,
2013-06-28 17:05:00,73.6,65.9,29.55,WSW,249,0.0,1.0,77,0.00,,,0.00,0.00,VWS V14.01,2013-06-28 21:05:00,
2013-06-28 17:06:00,73.7,66.1,29.55,WSW,249,0.0,0.0,77,0.00,,,0.00,0.00,VWS V14.01,2013-06-28 21:06:00,
2013-06-28 17:10:00,73.9,66.2,29.55,WSW,249,0.0,1.0,77,0.00,,,0.00,0.00,VWS V14.01,2013-06-28 21:10:00,
2013-06-28 17:11:00,73.9,66.2,29.55,WSW,249,0.0,2.0,77,0.00,,,0.00,0.00,VWS V14.01,2013-06-28 21:11:00,
2013-06-28 17:15:00,74.2,66.5,29.57,NNW,331,3.0,4.0,77,0.00,,,0.00,0.00,VWS V14.01,2013-06-28 21:15:00,
2013-06-28 17:16:00,74.1,66.1,29.57,North,360,5.0,6.0,76,0.00,,,0.00,0.00,VWS V14.01,2013-06-28 21:16:00,
2013-06-28 17:20:00,72.2,61.5,29.57,NNW,344,5.0,6.0,69,0.00,,,0.00,0.00,VWS V14.01,2013-06-28 21:20:00,
2013-06-28 17:21:00,70.9,60.2,29.57,NNW,340,6.0,7.0,69,0.00,,,0.00,0.00,VWS V14.01,2013-06-28 21:21:00,
2013-06-28 17:25:00,68.8,60.6,29.56,NW,308,0.0,1.0,75,0.00,,,0.00,0.00,VWS V14.01,2013-06-28 21:25:00,
2013-06-28 17:26:00,68.4,60.2,29.55,NW,308,1.0,1.0,75,0.00,,,0.00,0.00,VWS V14.01,2013-06-28 21:26:00,
2013-06-28 17:30:00,67.3,61.3,29.56,NW,308,0.0,0.0,81,0.00,,,0.00,0.00,VWS V14.01,2013-06-28 21:30:00,
2013-06-28 17:31:00,67.1,61.1,29.55,NW,308,0.0,0.0,81,0.00,,,0.00,0.00,VWS V14.01,2013-06-28 21:31:00,
2013-06-28 17:35:00,66.7,61.4,29.55,NW,308,0.0,0.0,83,0.00,,,0.00,0.00,VWS V14.01,2013-06-28 21:35:00,
2013-06-28 17:36:00,66.6,61.6,29.55,NW,308,0.0,0.0,84,0.00,,,0.00,0.00,VWS V14.01,2013-06-28 21:36:00,
2013-06-28 17:40:00,66.4,61.4,29.55,NW,308,0.0,0.0,84,0.00,,,0.00,0.00,VWS V14.01,2013-06-28 21:40:00,
2013-06-28 17:41:00,66.5,61.5,29.55,NW,308,0.0,0.0,84,0.00,,,0.00,0.00,VWS V14.01,2013-06-28 21:41:00,
2013-06-28 17:45:00,66.6,62.6,29.55,NW,308,0.0,0.0,87,0.00,,,0.00,0.00,VWS V14.01,2013-06-28 21:45:00,
2013-06-28 17:46:00,66.7,62.7,29.55,NW,308,0.0,0.0,87,0.00,,,0.00,0.00,VWS V14.01,2013-06-28 21:46:00,
2013-06-28 17:50:00,67.4,64.4,29.55,NW,308,0.0,0.0,90,0.00,,,0.00,0.00,VWS V14.01,2013-06-28 21:50:00,
2013-06-28 17:51:00,67.4,64.4,29.55,NW,308,0.0,0.0,90,0.00,,,0.00,0.00,VWS V14.01,2013-06-28 21:51:00,
2013-06-28 17:55:00,68.1,64.1,29.55,NW,308,0.0,0.0,87,0.00,,,0.00,0.00,VWS V14.01,2013-06-28 21:55:00,
2013-06-28 17:56:00,68.2,64.2,29.55,NW,308,0.0,0.0,87,0.00,,,0.00,0.00,VWS V14.01,2013-06-28 21:56:00,
2013-06-28 17:57:00,68.4,64.4,29.55,NW,308,0.0,1.0,87,0.00,,,0.00,0.00,VWS V14.01,2013-06-28 21:57:00,
2013-06-28 18:00:00,68.8,64.4,29.55,West,265,2.0,4.0,86,0.00,,,0.00,0.00,VWS V14.01,2013-06-28 22:00:00,
2013-06-28 18:01:00,68.8,64.4,29.55,West,265,1.0,4.0,86,0.00,,,0.00,0.00,VWS V14.01,2013-06-28 22:01:00,
2013-06-28 18:02:00,68.9,63.9,29.55,West,265,0.0,1.0,84,0.00,,,0.00,0.00,VWS V14.01,2013-06-28 22:02:00,
2013-06-28 18:05:00,69.2,64.2,29.55,West,265,0.0,0.0,84,0.00,,,0.00,0.00,VWS V14.01,2013-06-28 22:05:00,
2013-06-28 18:06:00,69.2,64.2,29.55,West,265,0.0,0.0,84,0.00,,,0.00,0.00,VWS V14.01,2013-06-28 22:06:00,
2013-06-28 18:08:00,69.5,65.1,29.55,West,265,0.0,0.0,86,0.00,,,0.00,0.00,VWS V14.01,2013-06-28 22:08:00,
2013-06-28 18:10:00,70.0,65.6,29.55,West,265,0.0,0.0,86,0.00,,,0.00,0.00,VWS V14.01,2013-06-28 22:10:00,
2013-06-28 18:11:00,70.1,65.7,29.55,West,265,0.0,1.0,86,0.00,,,0.00,0.00,VWS V14.01,2013-06-28 22:11:00,
2013-06-28 18:13:00,70.3,65.9,29.55,West,265,0.0,0.0,86,0.00,,,0.00,0.00,VWS V14.01,2013-06-28 22:13:00,
2013-06-28 18:15:00,70.8,66.4,29.54,West,265,0.0,0.0,86,0.00,,,0.00,0.00,VWS V14.01,2013-06-28 22:15:00,
2013-06-28 18:16:00,70.9,66.2,29.54,West,265,0.0,0.0,85,0.00,,,0.00,0.00,VWS V14.01,2013-06-28 22:16:00,
2013-06-28 18:18:00,71.2,66.5,29.54,West,265,0.0,0.0,85,0.00,,,0.00,0.00,VWS V14.01,2013-06-28 22:18:00,
2013-06-28 18:20:00,71.7,66.9,29.54,West,265,0.0,0.0,85,0.00,,,0.00,0.00,VWS V14.01,2013-06-28 22:20:00,
2013-06-28 18:21:00,71.7,66.9,29.54,West,265,1.0,1.0,85,0.00,,,0.00,0.00,VWS V14.01,2013-06-28 22:21:00,
2013-06-28 18:23:00,72.2,67.1,29.54,West,265,0.0,2.0,84,0.00,,,0.00,0.00,VWS V14.01,2013-06-28 22:23:00,
2013-06-28 18:25:00,72.7,67.2,29.54,West,265,0.0,0.0,83,0.00,,,0.00,0.00,VWS V14.01,2013-06-28 22:25:00,
2013-06-28 18:26:00,72.8,67.3,29.54,West,265,0.0,0.0,83,0.00,,,0.00,0.00,VWS V14.01,2013-06-28 22:26:00,
2013-06-28 18:27:00,73.0,67.9,29.54,West,265,1.0,1.0,84,0.00,,,0.00,0.00,VWS V14.01,2013-06-28 22:27:00,
2013-06-28 18:28:00,73.2,67.4,29.54,West,265,0.0,1.0,82,0.00,,,0.00,0.00,VWS V14.01,2013-06-28 22:28:00,
2013-06-28 18:31:00,73.7,67.5,29.54,West,265,0.0,0.0,81,0.00,,,0.00,0.00,VWS V14.01,2013-06-28 22:31:00,
2013-06-28 18:32:00,73.9,67.0,29.54,West,280,1.0,1.0,79,0.00,,,0.00,0.00,VWS V14.01,2013-06-28 22:32:00,
2013-06-28 18:33:00,74.1,67.2,29.54,West,280,0.0,1.0,79,0.00,,,0.00,0.00,VWS V14.01,2013-06-28 22:33:00,
2013-06-28 18:36:00,74.6,68.0,29.54,West,280,0.0,0.0,80,0.00,,,0.00,0.00,VWS V14.01,2013-06-28 22:36:00,
2013-06-28 18:37:00,74.8,68.2,29.54,West,280,0.0,0.0,80,0.00,,,0.00,0.00,VWS V14.01,2013-06-28 22:37:00,
2013-06-28 18:38:00,75.0,68.1,29.54,West,280,0.0,0.0,79,0.00,,,0.00,0.00,VWS V14.01,2013-06-28 22:38:00,
2013-06-28 18:41:00,75.5,67.8,29.54,West,280,0.0,0.0,77,0.00,,,0.00,0.00,VWS V14.01,2013-06-28 22:41:00,
2013-06-28 18:42:00,75.7,67.2,29.54,West,280,0.0,1.0,75,0.00,,,0.00,0.00,VWS V14.01,2013-06-28 22:42:00,
2013-06-28 18:43:00,75.8,67.3,29.54,West,280,1.0,1.0,75,0.00,,,0.00,0.00,VWS V14.01,2013-06-28 22:43:00,
2013-06-28 18:46:00,76.2,66.9,29.54,West,280,0.0,2.0,73,0.00,,,0.00,0.00,VWS V14.01,2013-06-28 22:46:00,
2013-06-28 18:47:00,76.3,66.2,29.54,West,280,0.0,2.0,71,0.00,,,0.00,0.00,VWS V14.01,2013-06-28 22:47:00,
2013-06-28 18:48:00,76.5,66.8,29.54,West,280,0.0,0.0,72,0.00,,,0.00,0.00,VWS V14.01,2013-06-28 22:48:00,
2013-06-28 18:51:00,76.7,66.2,29.54,West,281,0.0,1.0,70,0.00,,,0.00,0.00,VWS V14.01,2013-06-28 22:51:00,
2013-06-28 18:52:00,76.8,66.3,29.54,West,281,0.0,0.0,70,0.00,,,0.00,0.00,VWS V14.01,2013-06-28 22:52:00,
2013-06-28 18:53:00,76.9,66.4,29.54,West,281,0.0,0.0,70,0.00,,,0.00,0.00,VWS V14.01,2013-06-28 22:53:00,
2013-06-28 18:56:00,77.0,66.9,29.54,West,281,0.0,1.0,71,0.00,,,0.00,0.00,VWS V14.01,2013-06-28 22:56:00,
2013-06-28 18:57:00,77.0,66.5,29.54,West,281,0.0,1.0,70,0.00,,,0.00,0.00,VWS V14.01,2013-06-28 22:57:00,
2013-06-28 18:58:00,77.1,66.6,29.54,West,281,0.0,1.0,70,0.00,,,0.00,0.00,VWS V14.01,2013-06-28 22:58:00,
2013-06-28 19:01:00,77.3,66.3,29.54,West,281,0.0,2.0,69,0.00,,,0.00,0.00,VWS V14.01,2013-06-28 23:01:00,
2013-06-28 19:02:00,77.4,66.9,29.54,West,281,0.0,1.0,70,0.00,,,0.00,0.00,VWS V14.01,2013-06-28 23:02:00,
2013-06-28 19:03:00,77.5,66.5,29.54,West,281,2.0,2.0,69,0.00,,,0.00,0.00,VWS V14.01,2013-06-28 23:03:00,
2013-06-28 19:06:00,77.8,66.4,29.55,WNW,286,3.0,4.0,68,0.00,,,0.00,0.00,VWS V14.01,2013-06-28 23:06:00,
2013-06-28 19:07:00,77.8,66.4,29.55,WNW,286,1.0,3.0,68,0.00,,,0.00,0.00,VWS V14.01,2013-06-28 23:07:00,
2013-06-28 19:08:00,77.7,65.9,29.55,NW,307,1.0,3.0,67,0.00,,,0.00,0.00,VWS V14.01,2013-06-28 23:08:00,
2013-06-28 19:11:00,77.8,66.4,29.55,NW,307,0.0,1.0,68,0.00,,,0.00,0.00,VWS V14.01,2013-06-28 23:11:00,
2013-06-28 19:12:00,77.8,66.8,29.55,NW,307,0.0,1.0,69,0.00,,,0.00,0.00,VWS V14.01,2013-06-28 23:12:00,
2013-06-28 19:13:00,77.8,65.5,29.55,NW,307,0.0,1.0,66,0.00,,,0.00,0.00,VWS V14.01,2013-06-28 23:13:00,
2013-06-28 19:16:00,77.8,66.0,29.55,NW,307,0.0,1.0,67,0.00,,,0.00,0.00,VWS V14.01,2013-06-28 23:16:00,
2013-06-28 19:17:00,77.8,66.0,29.55,NW,307,0.0,0.0,67,0.00,,,0.00,0.00,VWS V14.01,2013-06-28 23:17:00,
2013-06-28 19:18:00,77.7,65.4,29.55,NW,307,2.0,2.0,66,0.00,,,0.00,0.00,VWS V14.01,2013-06-28 23:18:00,
2013-06-28 19:21:00,77.3,65.1,29.55,NW,307,1.0,1.0,66,0.00,,,0.00,0.00,VWS V14.01,2013-06-28 23:21:00,
2013-06-28 19:22:00,77.3,65.1,29.55,NW,307,0.0,2.0,66,0.00,,,0.00,0.00,VWS V14.01,2013-06-28 23:22:00,
2013-06-28 19:23:00,77.1,64.9,29.55,NW,307,0.0,0.0,66,0.00,,,0.00,0.00,VWS V14.01,2013-06-28 23:23:00,
2013-06-28 19:26:00,76.7,64.9,29.56,NW,307,0.0,1.0,67,0.00,,,0.00,0.00,VWS V14.01,2013-06-28 23:26:00,
2013-06-28 19:27:00,76.6,65.3,29.55,NW,307,0.0,0.0,68,0.00,,,0.00,0.00,VWS V14.01,2013-06-28 23:27:00,
2013-06-28 19:28:00,76.6,65.3,29.56,NW,307,0.0,0.0,68,0.00,,,0.00,0.00,VWS V14.01,2013-06-28 23:28:00,
2013-06-28 19:31:00,76.4,65.9,29.55,NW,307,0.0,0.0,70,0.00,,,0.00,0.00,VWS V14.01,2013-06-28 23:31:00,
2013-06-28 19:32:00,76.4,65.9,29.55,NW,307,1.0,1.0,70,0.00,,,0.00,0.00,VWS V14.01,2013-06-28 23:32:00,
2013-06-28 19:33:00,76.2,65.7,29.55,NW,307,1.0,1.0,70,0.00,,,0.00,0.00,VWS V14.01,2013-06-28 23:33:00,
2013-06-28 19:36:00,75.9,65.4,29.55,NW,307,0.0,1.0,70,0.00,,,0.00,0.00,VWS V14.01,2013-06-28 23:36:00,
2013-06-28 19:37:00,75.9,65.4,29.55,NW,307,0.0,1.0,70,0.00,,,0.00,0.00,VWS V14.01,2013-06-28 23:37:00,
2013-06-28 19:38:00,75.8,65.7,29.55,NW,307,0.0,0.0,71,0.00,,,0.00,0.00,VWS V14.01,2013-06-28 23:38:00,
2013-06-28 19:41:00,75.6,65.9,29.55,NW,307,0.0,0.0,72,0.00,,,0.00,0.00,VWS V14.01,2013-06-28 23:41:00,
2013-06-28 19:42:00,75.6,65.9,29.55,NW,307,0.0,0.0,72,0.00,,,0.00,0.00,VWS V14.01,2013-06-28 23:42:00,
2013-06-28 19:43:00,75.6,65.9,29.55,NW,307,0.0,0.0,72,0.00,,,0.00,0.00,VWS V14.01,2013-06-28 23:43:00,
2013-06-28 19:47:00,75.3,66.1,29.55,NW,307,0.0,0.0,73,0.00,,,0.00,0.00,VWS V14.01,2013-06-28 23:47:00,
2013-06-28 19:48:00,75.3,66.1,29.55,NW,307,0.0,0.0,73,0.00,,,0.00,0.00,VWS V14.01,2013-06-28 23:48:00,
2013-06-28 19:52:00,75.1,65.9,29.55,NW,307,0.0,0.0,73,0.00,,,0.00,0.00,VWS V14.01,2013-06-28 23:52:00,
2013-06-28 19:53:00,75.1,65.9,29.55,NW,307,0.0,0.0,73,0.00,,,0.00,0.00,VWS V14.01,2013-06-28 23:53:00,
2013-06-28 19:57:00,75.0,66.2,29.55,NW,307,0.0,0.0,74,0.00,,,0.00,0.00,VWS V14.01,2013-06-28 23:57:00,
2013-06-28 19:58:00,74.9,66.4,29.55,NW,307,1.0,1.0,75,0.00,,,0.00,0.00,VWS V14.01,2013-06-28 23:58:00,
2013-06-28 20:02:00,74.7,65.9,29.56,NNW,339,9.0,11.0,74,0.00,,,0.00,0.00,VWS V14.01,2013-06-29 00:02:00,
2013-06-28 20:03:00,74.6,64.6,29.56,NNW,343,8.0,17.0,71,0.00,,,0.00,0.00,VWS V14.01,2013-06-29 00:03:00,
2013-06-28 20:07:00,73.7,62.9,29.57,North,360,7.0,9.0,69,0.00,,,0.00,0.00,VWS V14.01,2013-06-29 00:07:00,
2013-06-28 20:08:00,73.3,62.9,29.57,North,360,4.0,9.0,70,0.00,,,0.00,0.00,VWS V14.01,2013-06-29 00:08:00,
2013-06-28 20:12:00,71.5,62.0,29.57,NNE,13,1.0,6.0,72,0.00,,,0.00,0.00,VWS V14.01,2013-06-29 00:12:00,
2013-06-28 20:13:00,71.0,61.9,29.57,NNE,24,6.0,6.0,73,0.00,,,0.00,0.00,VWS V14.01,2013-06-29 00:13:00,
2013-06-28 20:17:00,69.5,61.2,29.57,North,360,2.0,8.0,75,0.00,,,0.00,0.00,VWS V14.01,2013-06-29 00:17:00,
2013-06-28 20:18:00,69.2,61.3,29.57,NE,38,4.0,6.0,76,0.00,,,0.00,0.00,VWS V14.01,2013-06-29 00:18:00,
2013-06-28 20:19:00,69.0,61.1,29.57,NNE,14,3.0,7.0,76,0.00,,,0.00,0.00,VWS V14.01,2013-06-29 00:19:00,
2013-06-28 20:22:00,68.4,60.9,29.57,NNW,347,1.0,3.0,77,0.00,,,0.00,0.00,VWS V14.01,2013-06-29 00:22:00,
2013-06-28 20:23:00,68.1,60.6,29.57,North,360,0.0,7.0,77,0.00,,,0.00,0.00,VWS V14.01,2013-06-29 00:23:00,
2013-06-28 20:24:00,68.0,60.5,29.57,NE,43,2.0,5.0,77,0.00,,,0.00,0.00,VWS V14.01,2013-06-29 00:24:00,
2013-06-28 20:27:00,67.7,60.6,29.57,North,355,6.0,7.0,78,0.00,,,0.00,0.00,VWS V14.01,2013-06-29 00:27:00,
2013-06-28 20:28:00,67.6,60.1,29.57,NE,49,1.0,8.0,77,0.00,,,0.00,0.00,VWS V14.01,2013-06-29 00:28:00,
2013-06-28 20:29:00,67.6,60.5,29.57,North,360,2.0,4.0,78,0.00,,,0.00,0.00,VWS V14.01,2013-06-29 00:29:00,
2013-06-28 20:32:00,67.5,60.4,29.57,NNE,22,2.0,4.0,78,0.00,,,0.00,0.00,VWS V14.01,2013-06-29 00:32:00,
2013-06-28 20:33:00,67.4,60.3,29.57,NNE,32,2.0,5.0,78,0.00,,,0.00,0.00,VWS V14.01,2013-06-29 00:33:00,
2013-06-28 20:34:00,67.4,60.7,29.57,NNE,32,0.0,1.0,79,0.00,,,0.00,0.00,VWS V14.01,2013-06-29 00:34:00,
2013-06-28 20:37:00,67.4,61.0,29.57,NNE,33,0.0,0.0,80,0.00,,,0.00,0.00,VWS V14.01,2013-06-29 00:37:00,
2013-06-28 20:38:00,67.3,60.9,29.57,WNW,302,0.0,4.0,80,0.00,,,0.00,0.00,VWS V14.01,2013-06-29 00:38:00,
2013-06-28 20:39:00,67.3,60.9,29.57,WNW,302,0.0,0.0,80,0.00,,,0.00,0.00,VWS V14.01,2013-06-29 00:39:00,
2013-06-28 20:42:00,67.3,61.3,29.57,NNW,342,1.0,1.0,81,0.00,,,0.00,0.00,VWS V14.01,2013-06-29 00:42:00,
2013-06-28 20:43:00,67.3,61.3,29.57,NNW,342,1.0,1.0,81,0.00,,,0.00,0.00,VWS V14.01,2013-06-29 00:43:00,
2013-06-28 20:44:00,67.3,61.3,29.57,NNW,342,0.0,1.0,81,0.00,,,0.00,0.00,VWS V14.01,2013-06-29 00:44:00,
2013-06-28 20:47:00,67.2,61.2,29.57,NW,317,0.0,0.0,81,0.00,,,0.00,0.00,VWS V14.01,2013-06-29 00:47:00,
2013-06-28 20:48:00,67.1,61.4,29.57,NW,318,0.0,1.0,82,0.00,,,0.00,0.00,VWS V14.01,2013-06-29 00:48:00,
2013-06-28 20:49:00,67.1,61.4,29.57,NW,318,0.0,0.0,82,0.00,,,0.00,0.00,VWS V14.01,2013-06-29 00:49:00,
2013-06-28 20:52:00,67.0,62.0,29.57,East,94,0.0,0.0,84,0.00,,,0.00,0.00,VWS V14.01,2013-06-29 00:52:00,
2013-06-28 20:53:00,66.9,61.9,29.57,East,94,0.0,0.0,84,0.00,,,0.00,0.00,VWS V14.01,2013-06-29 00:53:00,
2013-06-28 20:54:00,66.9,61.9,29.57,East,94,0.0,0.0,84,0.00,,,0.00,0.00,VWS V14.01,2013-06-29 00:54:00,
2013-06-28 20:57:00,66.7,61.7,29.57,East,88,0.0,0.0,84,0.00,,,0.00,0.00,VWS V14.01,2013-06-29 00:57:00,
2013-06-28 20:58:00,66.7,61.7,29.57,East,92,0.0,1.0,84,0.00,,,0.00,0.00,VWS V14.01,2013-06-29 00:58:00,
2013-06-28 20:59:00,66.6,61.6,29.57,East,92,0.0,1.0,84,0.00,,,0.00,0.00,VWS V14.01,2013-06-29 00:59:00,
2013-06-28 21:02:00,66.5,61.9,29.57,East,92,0.0,0.0,85,0.00,,,0.00,0.00,VWS V14.01,2013-06-29 01:02:00,
2013-06-28 21:03:00,66.4,61.8,29.57,East,92,0.0,0.0,85,0.00,,,0.00,0.00,VWS V14.01,2013-06-29 01:03:00,
2013-06-28 21:04:00,66.4,61.8,29.57,East,92,0.0,0.0,85,0.00,,,0.00,0.00,VWS V14.01,2013-06-29 01:04:00,
2013-06-28 21:07:00,66.3,62.0,29.57,ENE,63,0.0,0.0,86,0.00,,,0.00,0.00,VWS V14.01,2013-06-29 01:07:00,
2013-06-28 21:08:00,66.3,62.0,29.57,ENE,63,0.0,0.0,86,0.00,,,0.00,0.00,VWS V14.01,2013-06-29 01:08:00,
2013-06-28 21:09:00,66.3,62.0,29.57,ENE,63,0.0,0.0,86,0.00,,,0.00,0.00,VWS V14.01,2013-06-29 01:09:00,
2013-06-28 21:12:00,66.2,61.9,29.57,ENE,63,0.0,0.0,86,0.00,,,0.00,0.00,VWS V14.01,2013-06-29 01:12:00,
2013-06-28 21:13:00,66.2,61.9,29.57,ENE,63,0.0,0.0,86,0.00,,,0.00,0.00,VWS V14.01,2013-06-29 01:13:00,
2013-06-28 21:14:00,66.1,61.8,29.56,ENE,63,0.0,0.0,86,0.00,,,0.00,0.00,VWS V14.01,2013-06-29 01:14:00,
2013-06-28 21:18:00,66.1,62.1,29.57,ENE,63,0.0,0.0,87,0.00,,,0.00,0.00,VWS V14.01,2013-06-29 01:18:00,
2013-06-28 21:19:00,66.0,62.0,29.57,North,355,0.0,0.0,87,0.00,,,0.00,0.00,VWS V14.01,2013-06-29 01:19:00,
2013-06-28 21:23:00,66.0,62.3,29.57,North,355,0.0,0.0,88,0.00,,,0.00,0.00,VWS V14.01,2013-06-29 01:23:00,
2013-06-28 21:24:00,65.9,62.2,29.57,North,355,0.0,0.0,88,0.00,,,0.00,0.00,VWS V14.01,2013-06-29 01:24:00,
2013-06-28 21:28:00,65.8,62.2,29.57,NNE,28,0.0,1.0,88,0.00,,,0.00,0.00,VWS V14.01,2013-06-29 01:28:00,
2013-06-28 21:29:00,65.8,62.2,29.57,NNE,28,0.0,0.0,88,0.00,,,0.00,0.00,VWS V14.01,2013-06-29 01:29:00,
2013-06-28 21:33:00,65.7,61.7,29.57,NNE,28,0.0,0.0,87,0.00,,,0.00,0.00,VWS V14.01,2013-06-29 01:33:00,
2013-06-28 21:34:00,65.6,61.6,29.57,NNE,28,0.0,0.0,87,0.00,,,0.00,0.00,VWS V14.01,2013-06-29 01:34:00,
2013-06-28 21:38:00,65.6,62.0,29.57,NNE,28,0.0,0.0,88,0.00,,,0.00,0.00,VWS V14.01,2013-06-29 01:38:00,
2013-06-28 21:39:00,65.6,62.0,29.57,NNE,28,0.0,1.0,88,0.00,,,0.00,0.00,VWS V14.01,2013-06-29 01:39:00,
2013-06-28 21:43:00,65.6,62.3,29.56,NNE,28,0.0,1.0,89,0.00,,,0.00,0.00,VWS V14.01,2013-06-29 01:43:00,
2013-06-28 21:44:00,65.6,62.0,29.57,NNE,28,0.0,0.0,88,0.00,,,0.00,0.00,VWS V14.01,2013-06-29 01:44:00,
2013-06-28 21:48:00,65.5,61.9,29.57,NNE,28,0.0,1.0,88,0.00,,,0.00,0.00,VWS V14.01,2013-06-29 01:48:00,
2013-06-28 21:49:00,65.5,61.9,29.57,NNE,28,0.0,1.0,88,0.00,,,0.00,0.00,VWS V14.01,2013-06-29 01:49:00,
2013-06-28 21:53:00,65.5,61.9,29.57,NNE,28,0.0,0.0,88,0.00,,,0.00,0.00,VWS V14.01,2013-06-29 01:53:00,
2013-06-28 21:54:00,65.5,61.9,29.57,NNE,28,0.0,0.0,88,0.00,,,0.00,0.00,VWS V14.01,2013-06-29 01:54:00,
2013-06-28 21:55:00,65.5,61.9,29.57,NNE,28,0.0,0.0,88,0.00,,,0.00,0.00,VWS V14.01,2013-06-29 01:55:00,
2013-06-28 21:58:00,65.5,61.9,29.57,NNE,28,0.0,0.0,88,0.00,,,0.00,0.00,VWS V14.01,2013-06-29 01:58:00,
2013-06-28 21:59:00,65.5,61.9,29.57,NNE,28,0.0,0.0,88,0.00,,,0.00,0.00,VWS V14.01,2013-06-29 01:59:00,
2013-06-28 22:00:00,65.5,62.2,29.57,NNE,28,0.0,0.0,89,0.00,,,0.00,0.00,VWS V14.01,2013-06-29 02:00:00,
2013-06-28 22:03:00,65.5,62.5,29.57,NNE,28,0.0,0.0,90,0.00,,,0.00,0.00,VWS V14.01,2013-06-29 02:03:00,
2013-06-28 22:04:00,65.5,62.5,29.57,NNE,28,0.0,0.0,90,0.00,,,0.00,0.00,VWS V14.01,2013-06-29 02:04:00,
2013-06-28 22:05:00,65.5,62.5,29.57,NNE,28,0.0,0.0,90,0.00,,,0.00,0.00,VWS V14.01,2013-06-29 02:05:00,
2013-06-28 22:08:00,65.5,62.2,29.57,NNE,28,0.0,0.0,89,0.00,,,0.00,0.00,VWS V14.01,2013-06-29 02:08:00,
2013-06-28 22:09:00,65.5,62.2,29.57,NNE,28,0.0,0.0,89,0.00,,,0.00,0.00,VWS V14.01,2013-06-29 02:09:00,
2013-06-28 22:10:00,65.5,62.2,29.57,NNE,28,0.0,0.0,89,0.00,,,0.00,0.00,VWS V14.01,2013-06-29 02:10:00,
2013-06-28 22:14:00,65.5,62.2,29.57,NNW,344,0.0,0.0,89,0.00,,,0.00,0.00,VWS V14.01,2013-06-29 02:14:00,
2013-06-28 22:15:00,65.5,62.2,29.57,NNW,344,0.0,0.0,89,0.00,,,0.00,0.00,VWS V14.01,2013-06-29 02:15:00,
2013-06-28 22:19:00,65.6,62.3,29.57,NNW,344,0.0,1.0,89,0.00,,,0.00,0.00,VWS V14.01,2013-06-29 02:19:00,
2013-06-28 22:20:00,65.6,62.3,29.57,NNW,344,0.0,1.0,89,0.00,,,0.00,0.00,VWS V14.01,2013-06-29 02:20:00,
2013-06-28 22:24:00,65.7,62.4,29.57,WNW,302,0.0,1.0,89,0.00,,,0.00,0.00,VWS V14.01,2013-06-29 02:24:00,
2013-06-28 22:25:00,65.7,62.4,29.57,WNW,302,1.0,2.0,89,0.00,,,0.00,0.00,VWS V14.01,2013-06-29 02:25:00,
2013-06-28 22:29:00,65.7,62.4,29.57,WNW,302,0.0,0.0,89,0.00,,,0.00,0.00,VWS V14.01,2013-06-29 02:29:00,
2013-06-28 22:30:00,65.7,62.4,29.57,WNW,302,0.0,1.0,89,0.00,,,0.00,0.00,VWS V14.01,2013-06-29 02:30:00,
2013-06-28 22:34:00,65.6,62.3,29.57,WNW,302,0.0,1.0,89,0.00,,,0.00,0.00,VWS V14.01,2013-06-29 02:34:00,
2013-06-28 22:35:00,65.6,62.3,29.57,WNW,302,1.0,1.0,89,0.00,,,0.00,0.00,VWS V14.01,2013-06-29 02:35:00,
2013-06-28 22:39:00,65.6,62.6,29.57,WNW,302,0.0,0.0,90,0.00,,,0.00,0.00,VWS V14.01,2013-06-29 02:39:00,
2013-06-28 22:40:00,65.6,62.6,29.58,WNW,302,0.0,1.0,90,0.00,,,0.00,0.00,VWS V14.01,2013-06-29 02:40:00,
2013-06-28 22:44:00,65.6,62.6,29.58,WNW,302,0.0,1.0,90,0.00,,,0.00,0.00,VWS V14.01,2013-06-29 02:44:00,
2013-06-28 22:45:00,65.6,62.6,29.58,WNW,302,0.0,0.0,90,0.00,,,0.00,0.00,VWS V14.01,2013-06-29 02:45:00,
2013-06-28 22:49:00,65.6,62.9,29.58,WNW,302,0.0,0.0,91,0.00,,,0.00,0.00,VWS V14.01,2013-06-29 02:49:00,
2013-06-28 22:50:00,65.6,62.6,29.57,WNW,302,0.0,0.0,90,0.00,,,0.00,0.00,VWS V14.01,2013-06-29 02:50:00,
2013-06-28 22:54:00,65.6,62.9,29.58,WNW,302,0.0,0.0,91,0.00,,,0.00,0.00,VWS V14.01,2013-06-29 02:54:00,
2013-06-28 22:55:00,65.7,63.0,29.58,WNW,302,0.0,0.0,91,0.00,,,0.00,0.00,VWS V14.01,2013-06-29 02:55:00,
2013-06-28 22:56:00,65.6,62.9,29.58,WNW,302,0.0,0.0,91,0.00,,,0.00,0.00,VWS V14.01,2013-06-29 02:56:00,
2013-06-28 22:59:00,65.6,62.9,29.58,WNW,302,0.0,2.0,91,0.00,,,0.00,0.00,VWS V14.01,2013-06-29 02:59:00,
2013-06-28 23:00:00,65.6,62.6,29.58,WNW,302,0.0,1.0,90,0.00,,,0.00,0.00,VWS V14.01,2013-06-29 03:00:00,
2013-06-28 23:01:00,65.6,62.6,29.58,WNW,302,0.0,0.0,90,0.00,,,0.00,0.00,VWS V14.01,2013-06-29 03:01:00,
2013-06-28 23:04:00,65.7,62.7,29.57,WNW,302,0.0,0.0,90,0.00,,,0.00,0.00,VWS V14.01,2013-06-29 03:04:00,
2013-06-28 23:05:00,65.7,63.0,29.57,WNW,302,0.0,1.0,91,0.00,,,0.00,0.00,VWS V14.01,2013-06-29 03:05:00,
2013-06-28 23:06:00,65.7,62.7,29.57,WNW,302,0.0,0.0,90,0.00,,,0.00,0.00,VWS V14.01,2013-06-29 03:06:00,
2013-06-28 23:09:00,65.7,62.7,29.57,WNW,302,0.0,0.0,90,0.00,,,0.00,0.00,VWS V14.01,2013-06-29 03:09:00,
2013-06-28 23:10:00,65.7,62.7,29.57,WNW,302,0.0,0.0,90,0.00,,,0.00,0.00,VWS V14.01,2013-06-29 03:10:00,
2013-06-28 23:11:00,65.7,62.7,29.57,WNW,302,0.0,1.0,90,0.00,,,0.00,0.00,VWS V14.01,2013-06-29 03:11:00,
2013-06-28 23:14:00,65.7,62.7,29.57,WNW,302,2.0,3.0,90,0.00,,,0.00,0.00,VWS V14.01,2013-06-29 03:14:00,
2013-06-28 23:15:00,65.7,62.7,29.57,WNW,302,0.0,0.0,90,0.00,,,0.00,0.00,VWS V14.01,2013-06-29 03:15:00,
2013-06-28 23:16:00,65.7,62.7,29.57,WNW,302,0.0,0.0,90,0.00,,,0.00,0.00,VWS V14.01,2013-06-29 03:16:00,
2013-06-28 23:19:00,65.8,62.8,29.57,WNW,302,0.0,0.0,90,0.00,,,0.00,0.00,VWS V14.01,2013-06-29 03:19:00,
2013-06-28 23:20:00,65.8,62.8,29.57,WNW,302,0.0,1.0,90,0.00,,,0.00,0.00,VWS V14.01,2013-06-29 03:20:00,
2013-06-28 23:21:00,65.7,62.7,29.57,WNW,302,0.0,1.0,90,0.00,,,0.00,0.00,VWS V14.01,2013-06-29 03:21:00,
2013-06-28 23:24:00,65.8,62.8,29.57,WNW,302,0.0,0.0,90,0.00,,,0.00,0.00,VWS V14.01,2013-06-29 03:24:00,
2013-06-28 23:25:00,65.8,62.8,29.57,WNW,302,0.0,1.0,90,0.00,,,0.00,0.00,VWS V14.01,2013-06-29 03:25:00,
2013-06-28 23:26:00,65.8,62.8,29.57,WNW,302,0.0,1.0,90,0.00,,,0.00,0.00,VWS V14.01,2013-06-29 03:26:00,
2013-06-28 23:29:00,65.8,62.8,29.57,WNW,302,0.0,0.0,90,0.00,,,0.00,0.00,VWS V14.01,2013-06-29 03:29:00,
2013-06-28 23:30:00,65.7,62.7,29.57,WNW,302,0.0,0.0,90,0.00,,,0.00,0.00,VWS V14.01,2013-06-29 03:30:00,
2013-06-28 23:31:00,65.8,62.8,29.57,WNW,302,0.0,0.0,90,0.00,,,0.00,0.00,VWS V14.01,2013-06-29 03:31:00,
2013-06-28 23:34:00,65.8,62.8,29.56,WNW,302,0.0,0.0,90,0.00,,,0.00,0.00,VWS V14.01,2013-06-29 03:34:00,
2013-06-28 23:35:00,65.8,62.8,29.56,WNW,302,0.0,0.0,90,0.00,,,0.00,0.00,VWS V14.01,2013-06-29 03:35:00,
2013-06-28 23:36:00,65.8,62.8,29.56,WNW,302,0.0,0.0,90,0.00,,,0.00,0.00,VWS V14.01,2013-06-29 03:36:00,
2013-06-28 23:39:00,65.8,62.8,29.56,WNW,302,0.0,0.0,90,0.00,,,0.00,0.00,VWS V14.01,2013-06-29 03:39:00,
2013-06-28 23:40:00,65.8,62.8,29.56,WNW,302,0.0,0.0,90,0.00,,,0.00,0.00,VWS V14.01,2013-06-29 03:40:00,
2013-06-28 23:41:00,65.8,62.8,29.56,WNW,302,0.0,0.0,90,0.00,,,0.00,0.00,VWS V14.01,2013-06-29 03:41:00,
2013-06-28 23:44:00,65.8,62.8,29.56,WNW,302,0.0,0.0,90,0.00,,,0.00,0.00,VWS V14.01,2013-06-29 03:44:00,
2013-06-28 23:45:00,65.8,62.8,29.56,WNW,302,0.0,0.0,90,0.00,,,0.00,0.00,VWS V14.01,2013-06-29 03:45:00,
2013-06-28 23:46:00,65.8,62.8,29.56,WNW,302,0.0,0.0,90,0.00,,,0.00,0.00,VWS V14.01,2013-06-29 03:46:00,
2013-06-28 23:49:00,65.7,62.7,29.56,WNW,302,0.0,0.0,90,0.00,,,0.00,0.00,VWS V14.01,2013-06-29 03:49:00,
2013-06-28 23:50:00,65.7,62.7,29.56,WNW,302,0.0,0.0,90,0.00,,,0.00,0.00,VWS V14.01,2013-06-29 03:50:00,
2013-06-28 23:51:00,65.7,62.7,29.56,WNW,302,0.0,0.0,90,0.00,,,0.00,0.00,VWS V14.01,2013-06-29 03:51:00,
2013-06-28 23:54:00,65.7,62.7,29.56,WNW,302,0.0,0.0,90,0.00,,,0.00,0.00,VWS V14.01,2013-06-29 03:54:00,
2013-06-28 23:55:00,65.7,62.7,29.56,WNW,302,0.0,0.0,90,0.00,,,0.00,0.00,VWS V14.01,2013-06-29 03:55:00,
2013-06-28 23:56:00,65.7,63.0,29.56,WNW,302,0.0,0.0,91,0.00,,,0.00,0.00,VWS V14.01,2013-06-29 03:56:00,
2013-06-28 23:59:00,65.6,62.9,29.56,WNW,302,0.0,0.0,91,0.00,,,0.00,0.00,VWS V14.01,2013-06-29 03:59:00,